GFSNGP_con_3kmhel_000.txt.gz
Helicity
100 78 91 85 96 128 137 186 234 253 143 87 78 78 68 77 105 109 123 84 88 102 132 199 242 341 324 360 356 278 178 162 146 158 128 97 65 76 92 89 94 85 81 82
160 60 13 -7 166 110 67 88 113 164 186 168 84 68 94 125 133 203 139 99 124 101 149 186 278 329 394 315 259 170 152 138 181 150 118 90 71 95 93 87 79 78 79 86
181 106 142 136 107 121 140 198 197 175 125 80 84 123 214 173 136 147 109 222 135 99 145 229 302 313 264 245 174 155 124 171 170 136 113 89 83 103 90 76 70 73 82 99
204 160 167 215 156 81 115 120 71 95 100 79 152 248 279 126 58 147 266 202 100 154 196 296 250 232 228 203 139 124 166 167 143 114 107 87 103 94 82 75 84 84 91 82
179 163 116 0 58 149 156 184 108 113 161 223 160 130 98 60 212 269 252 111 155 207 197 220 219 196 218 132 97 151 159 141 113 113 105 98 92 85 70 90 89 86 72 -105
255 217 181 273 42 146 162 165 209 188 159 101 94 243 194 106 304 249 96 100 234 223 180 163 182 200 101 69 122 150 147 116 102 92 93 87 82 71 81 95 90 72 -90 -98
262 337 295 124 199 166 231 209 179 81 92 98 139 139 102 287 180 110 67 121 277 217 143 154 162 90 57 106 145 153 126 103 100 96 85 91 72 79 89 88 60 -85 -83 -60
322 385 338 173 214 183 197 119 96 95 80 121 134 143 202 230 116 31 125 223 191 145 133 134 82 83 92 129 161 123 94 101 93 83 93 79 74 87 82 66 -83 -84 -78 -24
323 374 250 230 210 163 119 104 94 91 113 145 145 122 193 130 16 113 155 181 183 140 126 90 91 88 107 166 130 101 100 92 82 82 74 76 90 80 69 -67 -95 -93 -64 -17
336 410 217 181 155 132 79 80 100 105 121 86 95 199 -32 -1 46 151 186 204 171 129 103 107 104 125 150 134 112 98 95 88 80 78 84 79 82 76 -36 -95 -96 -79 -29 -10
300 202 167 95 85 78 76 81 89 74 126 92 125 -8 -16 50 152 187 198 203 150 110 101 111 132 139 130 117 103 97 91 82 78 81 83 71 66 72 -95 -98 -104 -54 -25 -2
304 188 128 126 77 58 70 84 83 102 105 117 105 84 163 155 179 175 179 141 104 94 103 130 131 125 112 105 97 92 82 86 86 82 77 65 64 53 -87 -97 -66 -7 0 -11
185 94 79 79 83 56 80 72 65 82 70 106 214 208 179 145 154 123 105 95 88 94 114 121 114 108 103 118 110 94 85 78 81 74 68 65 38 -64 -46 -63 -57 -7 10 23
69 87 94 63 83 60 53 50 57 95 203 201 204 186 144 154 119 92 90 91 94 106 111 106 98 103 98 95 93 90 78 74 73 66 65 61 25 -72 -72 -72 -25 34 43 47
46 53 77 71 51 53 69 79 101 115 221 213 201 171 164 115 86 97 107 101 102 108 107 94 97 97 84 89 89 86 77 81 72 60 57 53 -2 -67 -77 -75 -35 20 57 69
49 58 52 61 73 82 107 108 118 149 222 206 190 172 120 88 103 108 104 97 84 98 91 90 80 66 75 82 81 79 73 88 52 46 45 46 -43 -58 -68 -62 -33 22 54 77
73 78 77 92 105 99 130 178 191 179 179 173 150 129 114 109 99 93 91 83 77 77 85 80 65 72 84 75 80 77 72 69 54 27 37 45 -44 -53 -60 -54 -33 24 59 73
92 70 75 91 97 123 136 152 158 151 138 155 147 109 95 78 78 90 80 65 60 74 84 85 77 90 83 90 79 75 68 59 44 16 30 42 -36 -47 -47 -45 -30 19 67 80
83 85 86 111 123 118 112 92 107 111 122 113 96 78 65 71 76 78 66 55 60 66 102 79 73 76 89 94 63 69 63 52 24 12 31 34 -34 -33 -29 -25 -21 -4 52 74
69 61 72 109 143 118 91 100 110 104 87 66 54 48 56 74 71 63 56 50 50 63 80 52 44 74 100 88 62 66 62 52 6 11 29 23 -30 -31 -23 -12 -6 -7 19 62
61 37 74 153 140 166 160 147 105 99 66 49 46 60 65 64 61 57 55 64 93 88 82 73 52 65 81 77 59 68 60 46 16 10 25 15 -35 -35 -24 -11 -3 3 5 26
47 74 163 188 196 183 172 124 99 67 50 48 56 60 58 55 55 54 58 61 96 107 90 94 74 69 79 77 59 63 60 45 29 17 28 5 -29 -36 -27 -17 -10 -3 4 14
85 158 240 223 222 183 173 108 77 56 54 58 59 55 54 55 58 61 71 111 92 87 84 93 102 124 101 59 60 65 55 44 32 37 33 -1 -31 -29 -24 -20 -20 -13 -10 -4
139 209 203 232 190 183 116 95 62 51 55 54 43 44 49 60 62 69 65 63 59 67 69 65 100 100 79 56 62 66 47 41 34 52 43 -13 -38 -39 -30 -22 -18 -16 -14 -10
185 181 219 216 169 100 102 76 60 59 52 45 50 58 64 62 61 63 61 61 46 50 56 70 69 71 56 54 62 60 47 41 50 59 51 7 -42 -44 -36 -26 -20 -15 -12 -10
164 179 222 174 98 89 69 71 65 66 55 63 68 72 70 78 71 65 62 46 39 38 38 50 47 59 58 55 56 56 47 41 55 59 56 44 -20 -35 -37 -32 -28 -21 -15 -13
132 172 150 96 73 63 65 81 80 76 70 62 59 71 72 67 70 62 57 37 30 40 37 37 50 65 67 64 55 54 50 45 51 56 56 51 17 -15 -24 -29 -29 -25 -25 -25

GFSNGP_con_3kmhel_003.txt.gz
Helicity
64 47 48 44 76 80 53 52 121 207 111 84 50 50 78 125 173 198 114 126 144 233 110 84 109 173 234 295 328 350 341 338 262 173 203 121 112 119 101 93 92 82 94 92
124 46 21 48 93 69 1 33 60 66 87 40 57 90 136 227 205 140 93 116 163 158 109 86 130 187 259 297 378 211 251 231 175 222 131 110 138 114 97 105 92 98 93 86
214 73 154 124 74 37 85 71 85 136 102 87 130 204 214 150 109 117 135 97 160 134 80 138 181 243 218 258 223 250 344 185 172 121 113 131 104 96 101 101 102 86 86 102
231 136 148 119 93 71 135 99 77 72 99 256 287 149 67 125 84 185 91 135 169 116 88 224 198 224 278 271 285 297 148 155 103 117 122 92 107 99 101 101 86 89 107 107
227 154 130 91 -3 222 135 118 57 92 250 118 103 124 98 109 182 48 113 163 121 83 176 295 196 202 254 251 197 138 131 102 132 128 103 100 98 99 90 93 85 109 113 95
245 190 178 190 56 195 104 89 262 180 133 72 104 133 146 120 167 185 145 82 120 205 287 250 168 145 182 150 127 122 124 142 124 102 101 109 105 89 88 83 113 133 94 86
227 252 206 91 92 164 183 156 210 123 104 114 100 114 99 93 63 89 35 33 215 216 183 157 129 136 144 96 99 163 133 114 91 98 106 111 80 78 82 105 110 98 89 -79
284 369 338 126 139 203 112 129 93 108 96 86 88 82 69 150 86 -20 12 108 116 109 175 195 142 131 98 101 228 158 119 108 101 108 106 86 77 84 95 81 88 75 -88 -63
250 311 183 112 96 46 104 99 120 68 76 81 51 67 88 99 87 29 127 115 116 169 191 139 151 121 107 197 148 126 107 105 107 98 82 84 83 90 80 75 83 -91 -95 -62
222 231 119 128 74 57 67 107 75 92 72 95 72 71 82 103 66 112 159 137 162 180 164 169 145 129 132 139 114 103 110 109 93 82 84 63 91 86 82 60 -47 -76 -72 -8
234 125 96 122 74 91 80 53 126 152 100 86 88 115 81 126 134 192 172 172 175 149 147 128 147 124 116 112 104 95 108 92 78 81 68 73 74 81 67 -30 -71 -77 -40 14
302 149 92 64 90 89 124 150 134 86 84 75 115 150 184 216 220 181 140 141 130 131 121 113 117 109 101 100 101 103 95 95 92 68 68 71 70 62 39 -60 -62 -50 -4 7
152 95 94 107 127 130 121 92 95 88 62 61 168 239 204 165 153 108 103 112 123 109 112 115 111 97 111 145 125 112 95 79 70 61 68 71 64 49 -36 -59 -75 -45 -5 4
83 84 121 127 142 105 74 94 99 62 76 226 203 168 141 105 104 109 139 145 115 110 105 104 92 93 117 104 97 88 72 57 60 67 67 65 57 -8 -44 -57 -49 -10 18 14
88 89 78 106 88 86 93 73 59 61 112 122 134 93 113 137 164 184 164 121 106 105 112 87 91 84 101 102 81 80 77 84 86 60 59 48 -2 -27 -43 -47 -46 -6 30 43
104 85 70 91 97 81 72 69 93 108 127 118 165 175 150 157 173 150 125 102 93 112 93 82 79 67 85 74 65 61 79 120 71 55 52 31 -45 -39 -39 -38 -41 -6 26 38
64 109 151 123 69 115 99 163 171 151 161 160 140 149 177 164 127 108 87 93 95 79 68 66 63 87 88 72 71 80 85 83 78 51 50 -14 -37 -38 -35 -32 -31 -9 28 26
159 148 102 87 97 98 156 157 145 117 100 115 117 114 115 115 96 76 86 89 74 60 57 65 70 75 73 81 90 83 73 70 60 53 9 -28 -13 -39 -29 -22 -21 -13 26 37
195 132 84 76 121 142 136 148 133 122 107 112 108 104 83 65 67 77 80 72 63 55 87 83 83 66 62 92 77 64 64 63 52 42 -23 -35 -0 -23 -26 -16 -9 -11 16 41
60 93 76 65 88 172 162 166 198 192 119 110 95 80 68 70 77 71 68 59 55 68 95 95 85 69 56 77 66 53 69 58 48 10 -30 -29 10 -28 -29 -13 -6 -0 4 34
66 54 73 84 117 172 241 209 225 206 111 104 87 67 59 59 64 62 56 61 109 107 96 96 86 89 73 54 68 75 58 55 42 -18 -30 -10 7 -23 -26 -16 -14 -0 6 15
29 89 127 124 165 204 274 246 258 139 110 91 62 53 59 57 63 62 64 72 84 96 88 82 77 109 95 99 63 79 63 64 26 -19 -26 7 4 -24 -22 -17 -17 -15 -1 8
80 136 164 178 215 248 229 255 174 131 107 66 52 56 59 62 61 55 54 87 58 69 64 73 74 115 114 66 59 73 73 62 42 -9 -12 23 -0 -24 -21 -15 -16 -13 -8 -9
92 115 165 176 216 212 189 161 127 119 69 47 46 53 50 62 56 73 77 70 62 57 58 68 71 88 67 51 59 69 72 61 59 8 7 40 2 -33 -21 -17 -15 -14 -12 -10
132 125 175 199 173 153 137 123 127 79 50 47 53 54 66 65 86 77 77 73 55 42 46 64 52 54 53 49 56 62 63 63 63 63 42 42 -0 -30 -26 -18 -12 -7 -11 -9
127 170 148 134 146 145 117 109 76 61 59 55 48 70 69 72 68 85 85 73 53 39 51 51 45 57 60 60 58 59 60 73 74 73 58 56 34 -20 -17 -13 -21 -18 -15 -9
161 143 115 130 141 89 75 70 58 59 69 51 51 62 63 51 57 60 73 69 62 46 40 49 50 52 51 63 70 69 62 68 73 74 74 60 49 17 -3 -10 -13 -16 -19 -20

GFSNGP_con_3kmhel_006.txt.gz
Helicity
48 47 73 69 59 67 94 82 100 94 100 76 62 56 173 235 295 317 266 205 220 218 170 151 147 121 209 174 288 393 390 354 318 396 323 202 295 170 130 134 136 127 134 135
207 73 59 97 101 99 17 92 101 77 97 95 104 173 264 336 233 170 165 135 140 105 89 100 126 153 263 196 304 360 449 445 298 241 258 260 168 134 134 125 144 149 152 146
193 167 172 139 127 37 118 93 123 154 124 91 150 296 270 178 52 175 193 109 130 137 97 75 165 326 315 288 415 444 420 316 270 143 120 179 147 128 123 146 155 159 148 137
229 203 205 100 53 16 107 132 139 141 101 125 216 234 194 107 184 168 131 124 68 98 78 108 263 267 246 239 286 296 288 151 70 123 154 159 136 140 146 162 162 144 139 152
208 190 195 144 23 125 150 212 91 257 294 173 159 150 146 191 106 111 69 98 108 65 191 269 231 236 213 204 189 119 92 178 182 185 153 140 136 150 155 149 130 133 178 167
227 174 161 351 200 11 156 247 282 146 106 141 185 139 186 100 96 94 109 87 89 195 212 173 178 147 144 90 83 132 186 179 193 149 134 132 163 148 136 124 140 173 120 129
202 252 283 178 82 169 235 233 96 73 106 104 127 163 124 47 98 104 83 123 156 213 157 140 168 145 119 98 90 215 218 179 138 120 131 149 142 122 124 133 139 128 142 104
302 335 312 105 181 198 90 74 64 33 92 37 66 111 74 122 148 110 112 197 229 151 141 180 149 161 126 169 240 193 164 143 121 129 143 124 113 116 112 111 116 131 88 60
303 312 196 108 61 117 16 70 71 82 73 108 149 107 122 70 139 119 244 213 154 143 183 144 139 166 142 184 159 143 117 116 136 127 103 113 103 105 102 107 117 90 73 -79
175 237 177 120 76 71 105 80 54 83 198 173 101 82 89 141 130 225 266 186 145 196 164 143 137 164 157 150 126 109 108 122 110 95 102 100 100 92 105 102 93 59 -69 -87
240 219 143 134 115 97 79 93 186 140 186 53 91 98 95 199 228 247 180 159 158 129 124 123 151 160 153 119 102 93 108 105 97 118 102 92 80 90 96 102 73 -42 -80 -49
205 129 126 150 118 86 120 139 89 147 89 101 109 144 192 186 186 176 156 107 99 127 124 100 135 131 125 158 164 127 105 109 104 91 83 82 84 82 93 62 4 -53 -48 -18
178 122 86 104 90 143 165 76 129 135 165 173 144 149 83 67 107 89 88 131 179 179 150 133 117 109 168 127 122 123 108 86 86 72 88 82 74 66 55 29 -5 -38 -9 8
98 94 215 128 144 61 120 237 121 160 186 119 79 73 18 -11 105 151 175 211 173 142 145 135 110 113 113 103 126 98 70 46 71 95 84 72 69 57 35 -24 -44 -35 -13 18
141 111 112 190 190 157 181 136 112 121 66 -43 43 93 105 147 164 175 196 154 116 108 115 102 97 72 75 93 107 73 69 56 111 81 73 61 64 45 -35 -38 -48 -42 -24 13
170 177 200 166 125 110 131 105 83 58 -41 -7 24 80 96 118 133 137 150 129 116 98 100 91 67 49 89 78 90 78 79 140 91 85 70 69 52 -13 -43 -48 -41 -40 -31 7
157 135 193 125 155 136 111 80 119 82 95 95 118 111 104 102 95 99 105 98 82 77 79 74 56 59 68 44 78 84 100 107 92 71 71 59 14 -52 -33 -51 -37 -43 -35 5
196 157 133 156 111 65 46 134 186 144 124 160 125 121 125 114 107 97 81 75 77 75 76 72 72 64 82 69 89 78 81 88 70 59 72 34 -32 -55 -17 -47 -35 -33 -34 2
107 60 47 42 60 84 89 149 182 163 160 194 193 140 122 105 96 75 68 75 75 73 92 101 104 98 79 99 82 60 72 81 59 54 55 11 -46 -37 -8 -37 -43 -27 -21 -10
79 26 6 16 50 85 105 160 165 183 212 237 242 143 114 93 74 68 72 71 84 89 100 90 99 90 74 92 90 56 75 77 62 56 22 -23 -33 -32 -1 -30 -45 -30 -12 -13
22 5 41 88 112 143 129 162 189 220 230 270 154 135 96 65 66 68 70 78 101 85 76 73 93 91 108 106 99 77 82 66 65 56 8 -25 -32 -9 -1 -25 -34 -35 -25 -5
37 43 94 99 128 150 161 195 231 220 244 152 142 99 72 57 68 68 60 66 74 75 68 69 77 71 100 117 75 82 72 76 73 57 32 -0 -6 5 -11 -17 -27 -24 -27 -18
50 56 77 93 124 159 191 210 202 204 125 134 98 69 60 65 65 58 61 89 72 67 58 51 62 62 83 63 62 70 77 79 70 69 60 16 35 16 -19 -25 -25 -25 -20 -21
58 77 90 120 143 155 173 187 168 117 118 93 62 53 55 58 56 68 92 67 70 72 57 56 57 55 51 55 59 66 63 68 81 82 96 70 52 14 -13 -16 -19 -13 -12 -11
92 124 127 103 121 168 154 101 129 127 100 66 59 60 57 46 56 51 65 74 74 73 60 66 63 55 57 63 68 66 64 71 84 88 99 68 80 38 -9 21 6 -2 -10 -9
89 155 103 107 153 138 91 118 105 96 84 77 58 66 51 44 45 43 60 73 77 67 66 56 66 74 73 66 71 71 75 73 103 85 81 86 94 69 42 28 6 7 12 6
128 56 75 112 134 93 119 99 86 97 99 79 54 46 46 40 34 40 52 71 72 59 57 59 60 69 76 69 66 80 84 69 94 78 99 76 86 78 84 38 30 28 13 -6

GFSNGP_con_3kmhel_009.txt.gz
Helicity
113 105 89 69 66 117 138 119 118 106 82 70 58 107 186 253 179 122 138 122 74 47 49 102 92 110 146 173 173 185 312 448 544 539 420 355 304 261 176 129 114 116 120 123
151 103 83 125 155 186 120 87 94 96 78 111 137 184 253 182 77 69 130 120 121 95 103 101 100 150 222 261 238 257 369 398 443 437 410 369 235 119 107 107 120 122 121 134
136 184 191 131 79 82 120 56 104 167 210 272 202 165 119 144 37 127 133 132 103 99 128 106 169 235 245 207 210 266 302 301 275 228 205 43 -10 46 108 120 129 130 121 112
162 219 180 143 102 1 67 128 115 249 258 210 135 19 93 34 47 140 99 89 106 105 118 194 202 186 169 181 238 256 157 116 107 86 -13 61 124 127 130 143 132 109 113 125
166 198 197 216 52 106 89 47 213 266 194 -10 98 22 59 43 124 119 27 110 114 121 200 198 179 142 162 173 92 96 55 41 48 121 152 132 136 147 136 120 104 117 120 110
192 202 200 251 97 135 87 162 284 154 94 65 -9 91 105 130 92 80 138 125 144 197 237 213 153 167 154 126 118 112 128 199 194 167 144 156 150 131 115 122 115 109 109 122
178 225 214 156 88 130 172 192 85 80 69 116 107 147 163 102 18 132 110 139 236 211 178 165 238 232 173 169 186 175 159 145 133 135 150 149 126 115 111 105 106 118 105 80
219 303 205 172 95 139 128 100 68 115 115 125 113 174 -3 91 104 94 187 231 214 177 175 209 210 150 157 181 146 132 119 117 133 133 115 117 125 97 101 99 96 80 64 72
296 347 254 133 119 143 101 105 116 109 160 166 184 105 98 107 97 173 249 236 193 193 232 210 148 183 178 146 141 121 118 117 107 98 106 111 101 87 96 83 83 59 68 83
269 362 215 143 115 98 137 135 162 229 134 112 109 35 153 122 93 112 167 184 201 200 179 131 107 173 151 140 112 109 102 93 93 120 99 87 93 93 86 76 55 60 73 78
275 211 165 159 145 119 156 168 229 24 40 159 101 179 135 101 100 99 118 161 130 126 135 139 149 133 131 146 142 120 97 94 110 95 95 90 85 79 68 65 90 81 41 -0
244 164 155 167 165 128 234 148 28 115 176 175 187 91 85 90 41 33 31 82 160 201 237 150 160 173 169 154 126 100 95 98 101 91 81 80 78 70 59 48 51 50 8 -7
242 203 140 206 116 140 123 223 219 142 135 129 88 80 43 10 -20 140 165 182 220 187 128 152 166 131 107 91 91 85 76 74 77 62 73 70 67 72 59 40 19 14 4 12
119 136 254 207 132 169 231 182 74 164 178 118 62 51 43 65 102 118 167 168 158 138 147 130 111 105 101 87 78 65 63 67 81 71 72 66 70 58 58 37 -15 -23 -39 -10
190 236 169 232 264 268 190 145 84 139 113 84 98 63 18 2 36 87 130 121 97 114 122 101 101 83 66 69 64 58 84 106 109 80 58 61 57 59 41 5 -57 -46 -52 -32
305 346 369 199 92 60 66 80 68 89 101 117 102 36 39 65 92 108 124 117 114 91 78 87 81 65 68 68 57 63 87 110 90 76 68 63 62 40 10 -45 -58 -52 -57 -40
316 253 75 51 53 83 41 68 83 122 119 115 122 126 127 103 109 131 105 93 79 67 74 81 75 70 84 75 77 66 76 86 81 71 64 68 49 27 -12 -56 -48 -49 -52 -34
135 153 122 88 41 45 86 100 75 108 152 146 179 193 182 156 101 90 81 66 64 70 84 82 85 117 103 75 80 74 74 78 72 58 65 60 39 21 -35 -31 -36 -57 -46 -38
201 102 86 24 5 51 83 102 110 139 166 159 194 176 199 125 104 85 73 74 83 87 88 81 100 94 82 83 98 88 69 83 66 64 58 54 46 -8 -33 -7 -23 -61 -27 -35
99 64 -3 -34 20 85 89 136 125 127 133 186 216 201 149 111 94 80 74 85 83 78 67 68 74 88 90 92 98 87 78 81 71 64 63 56 30 -10 -10 18 -8 -56 -31 -32
21 -8 -26 36 75 90 119 129 113 152 169 189 190 164 106 84 73 62 74 69 69 77 74 69 65 69 61 70 107 74 98 83 82 71 63 67 41 24 21 18 -8 -39 -46 -26
23 51 78 79 87 111 113 103 123 189 214 152 159 127 94 66 68 72 61 65 63 55 59 58 58 56 67 60 59 67 80 82 78 72 83 79 58 44 43 4 -0 -29 -41 -42
108 124 132 143 156 152 152 119 123 192 163 104 115 93 69 59 63 66 45 51 52 58 60 66 58 57 58 56 62 63 74 77 87 84 95 100 92 69 53 -0 -12 -23 -27 -26
125 143 162 192 196 163 124 82 111 167 96 111 93 70 60 60 57 57 62 64 53 64 68 71 74 60 57 62 69 71 69 78 82 94 115 101 92 79 75 40 21 -7 -5 8
162 167 186 166 148 99 70 83 134 104 102 105 73 69 51 45 41 35 25 25 47 60 54 53 73 70 68 72 71 77 75 74 85 102 102 113 116 94 101 62 34 24 26 10
144 130 162 144 98 67 69 137 105 100 122 84 74 73 74 51 39 37 32 38 61 56 50 48 56 73 81 82 79 74 81 77 93 91 79 86 109 104 105 67 52 62 32 10
116 139 164 115 82 98 124 113 99 69 89 124 117 92 73 58 48 35 30 45 62 62 53 45 44 46 76 94 91 73 79 88 93 91 85 84 88 98 105 84 89 58 23 10

GFSNGP_con_3kmhel_015.txt.gz
Helicity
91 80 90 80 83 68 150 189 196 138 114 107 132 111 103 117 125 90 70 55 98 140 160 188 156 99 92 82 92 108 118 126 175 251 339 456 543 472 336 189 113 106 101 107
68 64 67 63 91 154 79 79 125 102 136 96 140 120 110 100 64 60 28 59 118 164 173 192 155 106 106 128 140 165 142 140 160 209 193 138 140 41 -34 -127 -42 70 119 114
94 107 82 75 36 73 101 113 132 158 113 107 100 79 56 45 65 68 78 120 142 174 227 146 124 135 151 156 162 206 155 132 115 112 100 72 53 27 16 53 107 127 117 108
121 125 132 63 134 148 150 92 165 121 46 138 50 96 116 131 195 145 139 162 160 154 110 91 133 164 189 212 177 192 167 159 125 106 106 102 98 118 125 124 120 109 102 100
156 174 182 129 40 131 162 175 158 146 215 80 89 142 123 208 151 114 136 150 84 106 114 141 155 193 227 178 186 187 237 212 159 142 152 148 140 113 112 118 109 101 90 96
208 175 172 157 126 199 201 236 179 290 140 106 141 145 189 209 190 88 52 73 98 110 133 154 183 233 214 210 197 158 125 139 145 157 140 122 103 100 104 103 93 99 104 97
249 234 171 130 122 194 270 161 173 174 127 130 187 217 250 177 152 120 85 69 85 97 108 134 131 191 170 109 125 103 118 131 143 136 112 106 100 103 102 103 106 98 87 71
243 255 145 156 287 250 172 167 160 129 158 132 206 172 141 144 85 69 61 84 84 110 136 120 135 142 114 113 157 165 141 143 139 113 95 104 103 99 111 113 96 76 69 65
287 265 230 268 285 164 100 130 115 165 157 190 249 244 170 120 51 83 93 102 123 143 151 141 155 160 187 189 166 176 155 152 106 82 88 91 102 106 102 95 75 65 61 57
267 251 197 172 122 34 124 155 173 174 215 286 270 218 115 22 82 101 99 112 136 152 141 148 169 158 153 160 156 151 125 99 83 80 81 108 105 101 103 90 72 62 58 54
249 182 154 146 183 137 197 260 256 332 443 337 133 46 43 65 92 111 102 116 110 116 113 102 87 90 118 126 129 120 106 92 83 87 106 121 107 95 95 80 83 77 71 62
272 144 164 187 220 218 319 312 333 253 222 60 30 53 105 94 118 132 123 122 116 104 102 118 137 132 123 127 122 100 84 78 89 102 114 111 101 93 71 69 76 74 60 56
166 143 172 191 215 406 233 259 286 172 158 101 52 87 110 155 163 149 137 137 117 125 121 136 149 137 125 118 107 96 87 86 101 102 107 103 100 88 78 64 59 69 57 15
130 185 229 358 279 112 165 207 195 195 102 69 84 104 145 182 165 164 159 149 147 143 135 154 139 118 112 117 110 107 96 91 97 93 98 94 93 93 95 94 73 46 36 -31
192 228 203 139 217 285 272 222 168 119 76 62 59 93 135 163 180 175 173 181 172 144 143 139 113 104 117 131 129 124 117 117 106 96 84 86 97 98 99 99 78 38 -60 -57
381 439 441 390 281 232 214 177 89 106 59 26 34 53 133 186 192 185 187 224 191 143 129 98 95 105 117 137 139 131 119 113 94 92 87 92 93 97 98 92 72 -59 -65 -74
245 272 171 112 102 132 43 75 73 51 34 58 87 136 147 169 189 185 189 218 156 134 106 97 94 104 122 135 119 115 119 99 78 97 93 92 93 96 99 98 -20 -62 19 -72
165 182 113 162 184 125 49 25 -5 38 66 82 109 123 144 166 175 160 214 159 153 135 89 91 97 98 94 85 94 98 107 94 89 94 91 92 92 100 104 101 18 66 11 -65
15 74 86 98 41 15 38 32 49 83 133 144 150 134 129 151 177 188 186 156 135 125 86 71 62 76 68 61 62 65 99 105 101 91 93 93 104 108 108 96 69 70 2 -59
99 60 27 15 23 48 89 131 156 154 171 149 144 147 113 160 169 172 162 129 98 79 53 56 58 57 57 60 60 70 105 103 94 86 98 96 111 104 98 88 84 77 -1 -57
12 -15 4 45 104 126 160 152 147 141 112 142 132 119 106 156 169 172 158 112 56 61 50 54 55 56 59 58 62 73 89 98 88 92 97 100 106 110 100 89 79 71 19 -44
21 68 98 113 118 117 133 150 152 166 151 138 120 144 158 164 180 135 88 64 68 59 48 55 55 51 60 49 63 75 86 90 98 95 98 110 114 116 103 96 87 70 51 -29
119 118 103 110 119 122 132 138 142 135 138 143 103 133 175 184 156 135 106 53 56 61 48 47 44 47 54 53 66 75 83 89 85 90 91 103 111 118 112 102 96 81 64 5
112 99 98 115 128 138 130 96 110 137 150 100 87 162 177 145 106 63 44 68 50 48 45 44 43 49 55 71 66 74 82 82 81 78 80 97 114 109 105 95 96 89 65 43
117 105 108 94 106 119 104 96 86 98 93 84 106 136 133 113 94 73 83 73 49 48 48 53 54 50 61 70 76 81 83 89 85 89 82 87 103 106 92 93 88 91 74 60
86 92 98 87 103 94 108 108 108 92 80 101 106 99 95 77 63 76 81 58 70 66 59 61 57 50 49 50 49 68 78 84 89 90 90 88 90 101 89 86 81 82 83 71
98 94 72 69 71 82 92 104 102 70 88 79 70 63 93 101 86 83 79 62 58 63 63 63 49 46 42 43 43 58 74 85 92 102 97 92 94 99 97 88 78 78 76 76

GFSNGP_con_3kmhel_021.txt.gz
Helicity
107 79 108 107 75 92 130 137 172 98 81 91 90 114 167 157 115 57 19 10 20 47 96 91 107 110 71 65 79 102 104 121 131 94 120 132 85 74 62 84 88 86 89 82
113 99 116 84 92 83 86 48 77 58 74 49 111 196 162 118 88 67 67 19 14 61 101 124 151 146 53 41 46 59 94 106 143 168 145 125 118 77 78 72 97 106 105 98
140 160 91 98 72 53 71 90 125 117 89 132 160 173 128 89 60 72 40 65 81 129 126 153 111 41 55 66 65 96 114 139 142 103 98 107 116 107 101 115 117 103 94 88
244 195 171 133 107 106 85 26 83 92 93 96 135 153 113 131 175 131 100 113 118 107 121 85 52 85 97 106 105 88 122 148 141 126 123 126 117 112 113 117 95 85 78 80
225 218 182 111 38 79 100 81 89 134 120 152 140 122 111 204 202 147 143 65 86 92 54 46 57 94 98 110 142 125 163 164 143 141 152 136 127 119 100 78 74 71 74 79
243 200 185 118 104 87 89 101 134 119 121 139 154 152 158 345 313 8 42 137 92 57 43 52 68 72 84 86 121 151 178 140 151 146 123 110 106 87 83 74 76 88 86 79
146 197 174 120 54 136 162 144 178 155 149 140 152 245 359 216 -25 80 110 115 72 60 67 69 59 76 91 105 110 98 117 125 113 110 97 94 90 86 81 79 88 86 82 78
195 168 80 91 123 129 137 142 89 111 131 146 264 320 223 70 81 93 57 66 78 78 86 83 92 117 113 108 115 122 130 121 108 100 90 87 84 81 82 82 78 76 68 60
209 238 180 116 140 133 124 134 140 145 299 285 274 183 184 110 93 46 106 117 103 106 114 107 101 119 114 108 137 144 136 120 107 94 85 79 74 86 84 80 77 74 72 64
190 219 166 119 104 180 242 271 261 233 172 258 219 139 87 65 61 96 76 92 104 123 134 112 108 127 118 136 153 143 129 120 105 90 79 74 88 93 88 80 85 82 74 69
196 125 82 81 211 195 233 208 131 150 135 76 52 -32 -5 51 41 50 76 86 118 131 141 118 122 125 131 141 145 129 126 114 107 96 82 83 93 86 86 94 93 92 92 84
217 123 152 207 207 203 164 33 34 64 57 65 53 54 58 56 69 66 52 80 119 121 131 123 139 125 125 131 135 124 112 117 111 91 87 88 88 74 80 87 89 99 84 92
161 194 230 149 200 135 46 57 93 120 118 111 55 66 95 100 85 76 86 111 109 113 127 131 132 123 118 133 131 119 108 107 98 93 88 89 82 78 73 75 66 81 79 73
225 198 192 200 112 86 130 122 118 108 74 52 67 70 56 82 96 115 120 106 116 125 121 139 140 121 107 116 106 102 101 94 91 90 93 88 87 81 86 87 80 69 67 61
298 289 213 135 164 113 84 107 100 85 30 43 49 40 69 99 121 130 128 110 103 125 121 133 136 98 110 92 77 80 87 81 81 85 91 89 87 87 97 97 97 84 70 61
149 135 124 119 82 71 79 78 54 20 -19 -1 27 72 99 131 128 127 100 102 141 117 112 126 123 116 117 69 56 54 65 57 75 76 77 78 84 86 88 94 92 85 65 61
109 141 121 91 74 62 40 7 -12 -10 23 79 116 133 130 140 140 126 117 133 143 148 127 116 119 137 80 42 48 45 50 57 63 75 89 83 82 81 82 89 89 88 74 76
74 53 51 49 60 57 34 13 34 83 109 112 128 146 154 148 148 139 137 150 161 127 118 125 132 80 28 39 47 51 46 53 62 79 85 77 76 76 79 82 87 82 71 71
68 60 77 87 68 54 59 96 106 106 114 123 136 143 169 160 145 152 146 169 143 122 109 113 93 26 35 50 45 48 52 60 70 75 81 79 73 77 77 73 76 77 75 62
75 96 84 70 78 113 104 106 109 109 122 123 133 142 142 120 118 130 130 124 108 102 100 94 41 31 36 50 50 43 52 60 64 71 81 81 73 70 77 78 73 74 69 65
92 77 92 107 99 105 115 109 112 120 104 122 134 120 138 113 101 106 109 93 71 82 94 65 33 38 38 45 45 44 50 54 57 60 75 80 80 74 74 80 74 73 65 60
99 112 110 106 104 92 94 107 108 112 124 128 118 120 122 89 89 84 83 47 58 88 66 36 41 50 38 42 47 47 48 43 47 55 70 79 80 74 72 79 79 70 69 57
114 116 104 98 95 86 102 115 112 116 116 96 99 94 99 83 67 61 56 42 51 69 57 48 52 50 40 47 48 49 46 45 49 58 68 75 77 73 75 76 82 74 67 61
102 92 89 96 104 94 89 89 111 99 100 108 110 93 87 66 66 57 40 39 48 51 48 52 59 51 42 49 51 53 47 39 45 57 80 78 82 80 83 83 80 75 67 65
99 93 103 90 71 67 86 111 120 83 79 100 93 81 75 69 53 52 56 58 52 61 52 61 67 60 55 56 50 49 46 36 43 58 69 78 78 85 86 87 86 73 68 63
92 100 107 96 87 84 107 129 132 106 112 108 100 76 74 78 65 56 56 49 54 47 54 60 61 62 58 48 49 55 46 38 46 59 66 69 70 76 92 95 96 88 72 65
95 98 89 91 92 89 106 102 111 103 110 102 95 78 69 80 86 93 104 89 67 63 63 62 56 61 58 47 57 65 52 46 52 54 59 64 66 63 81 101 101 100 88 77

GFSNGP_con_3kmhel_024.txt.gz
Helicity
77 66 85 126 79 71 101 99 151 50 48 39 75 65 66 126 96 117 121 115 86 140 146 127 131 94 101 67 50 59 71 81 123 160 120 172 172 107 85 78 101 92 87 100
109 90 90 117 99 85 56 24 42 47 40 54 61 61 83 114 108 92 127 103 127 136 131 129 104 104 82 48 60 70 106 136 161 172 122 116 112 113 114 87 83 93 93 93
162 133 80 100 47 97 100 56 70 76 75 83 67 74 75 116 116 131 138 212 189 144 129 106 102 66 63 58 75 110 123 139 154 155 151 154 137 129 115 104 99 88 80 83
221 139 131 185 90 72 22 4 41 48 73 94 63 86 123 95 212 214 320 281 248 113 108 93 57 63 64 79 120 109 104 122 140 160 152 136 118 115 101 91 82 81 83 88
238 194 115 47 118 78 77 24 54 86 120 107 79 109 127 296 286 260 265 128 -40 52 78 83 66 80 83 98 91 123 97 106 122 119 102 96 92 86 84 83 83 89 98 96
225 193 172 139 117 58 45 44 174 129 102 76 83 158 194 300 277 227 -19 -57 57 62 92 96 94 110 121 98 105 115 96 94 112 104 88 84 85 78 83 75 85 109 95 82
161 187 140 88 79 131 117 186 129 89 121 150 161 283 288 160 130 23 -69 55 64 80 97 112 107 111 100 93 88 121 97 103 101 93 90 85 76 74 73 81 91 103 76 64
176 170 66 120 109 119 108 103 102 113 196 222 198 170 130 97 66 50 55 54 92 112 112 117 122 140 110 82 105 132 114 111 105 101 97 83 76 73 82 79 85 91 77 71
180 167 88 70 91 89 115 109 193 194 148 104 92 79 90 106 50 49 49 72 115 121 118 127 149 103 91 90 128 128 118 113 102 95 90 78 74 78 80 77 90 101 90 88
143 112 47 95 69 212 179 158 164 67 86 16 22 113 124 109 69 55 79 110 126 129 132 137 115 105 100 126 133 104 110 110 93 86 98 74 83 93 86 90 109 100 98 101
103 77 41 99 171 210 200 161 74 33 -17 53 97 92 114 99 64 90 108 121 140 141 126 109 114 110 103 125 118 92 109 97 77 89 81 76 81 83 81 89 127 107 109 96
172 152 154 218 265 197 140 74 75 53 89 70 91 107 103 68 88 105 122 119 122 123 136 124 112 101 117 132 132 91 104 76 82 77 78 82 72 68 122 119 111 115 107 100
174 205 230 246 159 62 87 65 91 37 35 63 67 72 63 73 83 89 83 94 112 114 104 94 106 120 142 177 121 118 106 71 69 72 65 72 66 67 68 97 131 128 121 88
198 186 178 86 11 50 66 51 55 49 74 83 66 42 30 54 60 69 73 107 104 90 95 92 93 122 128 83 118 131 70 70 57 56 65 66 62 67 73 81 85 89 145 107
195 166 90 34 46 62 66 71 77 91 85 54 35 34 60 80 79 87 104 98 60 67 74 93 98 109 77 93 121 95 52 51 56 59 62 67 61 66 70 77 80 84 89 104
149 123 114 90 70 76 86 78 70 56 46 41 72 86 78 83 102 105 106 103 102 95 92 111 105 91 107 117 98 40 42 47 41 47 61 70 70 70 65 73 70 81 86 81
112 134 114 93 95 76 42 31 65 63 78 83 84 103 99 101 107 92 106 106 128 142 119 98 94 102 86 82 44 40 41 42 56 49 66 73 74 69 68 68 69 73 85 105
117 88 94 91 72 56 62 78 85 89 89 92 105 109 105 98 104 101 111 99 107 107 80 81 87 78 65 43 45 44 38 42 48 65 76 75 77 67 63 65 68 69 76 94
91 97 89 65 66 89 89 90 102 96 98 103 107 107 110 104 95 115 109 85 85 83 86 89 80 58 44 50 37 37 38 45 54 70 76 76 72 71 67 63 67 70 73 68
85 81 78 82 104 110 109 104 99 85 85 96 117 111 107 95 91 108 94 91 79 90 90 77 60 43 43 49 35 32 34 43 48 60 68 66 68 71 66 73 69 64 67 69
85 83 104 113 108 118 113 98 94 91 81 108 109 109 112 107 96 104 78 66 93 76 68 55 27 31 38 40 34 40 40 41 47 48 52 66 71 73 68 68 65 66 66 68
91 99 108 108 112 92 87 89 90 93 106 116 114 110 101 93 74 64 73 60 73 71 56 39 32 55 42 49 34 45 39 44 40 40 49 60 68 73 71 71 71 66 68 66
87 91 96 110 106 74 81 90 74 76 96 110 102 99 104 115 89 76 70 68 58 70 60 50 63 51 49 48 46 43 41 40 34 30 46 66 68 69 68 69 75 82 66 63
95 97 96 92 104 92 80 55 70 84 97 94 98 119 118 99 97 91 68 69 66 73 54 61 71 60 54 53 50 48 44 42 38 37 45 50 69 77 75 74 72 77 79 73
115 97 90 98 84 72 64 58 80 90 91 82 91 102 114 89 106 81 77 72 72 54 53 65 69 64 60 54 55 48 46 43 46 42 46 52 58 67 77 88 85 78 85 75
90 93 90 83 79 76 79 92 108 101 90 88 91 91 124 105 111 93 89 82 78 79 64 70 80 71 61 61 59 54 52 48 46 47 49 48 51 58 64 78 98 101 90 86
82 87 75 69 73 80 100 115 118 98 83 103 84 81 101 101 105 114 112 129 133 104 83 82 78 65 64 64 56 68 64 56 56 55 48 47 50 55 58 61 83 106 103 99

GFSNGP_con_3kmhel_027.txt.gz
Helicity
59 49 69 108 99 90 73 98 127 46 22 14 44 126 140 92 99 79 105 160 216 276 285 145 294 156 119 101 85 88 79 92 158 156 106 98 101 97 92 95 116 97 97 100
86 100 109 125 82 39 40 48 69 67 50 71 63 77 75 52 89 138 190 240 236 275 258 287 162 99 94 103 89 79 107 162 224 157 144 139 125 106 131 126 121 104 89 92
138 157 124 167 149 114 99 83 91 67 41 37 82 109 162 163 174 224 306 128 214 231 218 117 77 121 111 92 81 130 133 148 146 123 152 156 151 135 110 100 90 84 83 91
164 149 165 218 69 53 77 60 48 37 62 134 89 184 122 163 210 231 215 201 151 90 39 87 92 65 94 105 104 123 153 194 192 161 115 96 119 108 116 88 86 87 90 114
175 174 165 42 195 127 100 10 43 115 156 92 123 118 78 225 206 151 122 57 34 -5 74 61 63 86 138 117 115 181 141 210 131 59 126 119 120 119 87 87 87 89 109 115
214 206 226 140 127 134 59 60 174 144 96 76 90 112 149 173 148 118 110 92 94 64 45 78 81 106 137 141 150 130 127 171 132 133 143 121 124 93 90 86 88 122 126 83
171 245 155 80 99 87 113 177 139 117 178 212 160 201 168 124 97 63 76 61 47 55 85 81 94 98 110 103 84 80 113 204 171 145 140 149 109 87 80 77 92 168 106 87
211 243 146 126 108 153 130 109 172 269 155 158 135 169 98 31 52 107 94 64 68 98 110 132 111 100 79 111 69 102 201 199 156 155 168 121 88 74 66 77 105 122 105 100
212 160 85 71 106 95 146 181 173 142 127 141 108 69 72 70 108 119 95 85 101 121 136 138 115 74 64 140 140 166 172 150 142 163 131 82 82 69 80 85 100 104 106 106
176 116 86 55 121 260 214 144 118 144 105 48 60 59 72 101 92 92 88 91 101 136 140 125 70 67 74 93 157 113 144 144 155 139 142 83 72 69 92 94 103 100 100 118
115 86 92 233 233 153 51 101 138 71 40 51 67 91 79 84 101 97 91 104 126 109 98 90 76 72 61 56 137 156 171 192 128 137 91 89 55 77 75 84 128 107 109 123
143 208 204 158 155 106 96 133 95 77 110 98 93 78 93 106 95 88 117 88 96 97 139 120 103 116 88 102 170 176 185 134 132 127 85 68 60 61 100 105 125 115 128 134
159 234 159 104 104 63 90 83 67 81 82 81 87 106 90 84 86 109 82 84 103 132 116 108 126 96 79 126 140 97 147 128 102 66 59 64 71 72 76 96 112 96 142 129
206 219 190 118 120 67 63 70 94 75 78 106 107 85 82 91 95 87 84 95 84 106 148 104 92 106 114 141 105 108 89 64 41 48 62 68 73 78 81 81 81 73 147 141
243 158 115 61 70 84 115 98 88 93 95 67 91 98 100 93 88 90 90 95 101 98 95 106 137 91 123 114 82 57 79 41 53 47 57 66 68 73 82 82 85 75 80 129
143 57 155 141 154 141 109 97 78 63 77 101 98 88 91 86 101 98 79 115 110 112 84 112 110 94 113 80 63 57 38 65 51 47 54 66 77 82 87 85 80 80 78 93
84 183 167 160 132 109 77 59 80 98 98 93 94 99 84 91 90 93 73 87 99 114 99 120 112 107 90 64 54 33 48 48 51 50 55 74 87 82 93 86 82 77 79 139
185 164 130 111 96 80 75 99 101 105 94 94 96 96 98 110 99 89 84 92 96 97 112 115 98 80 67 49 40 35 48 46 46 49 61 75 84 82 92 88 79 78 79 104
128 104 100 88 88 92 99 96 103 113 106 100 100 96 109 128 105 98 104 91 92 74 118 101 97 69 55 57 31 39 41 39 41 47 55 67 71 83 91 88 84 78 80 84
116 109 96 87 104 106 108 102 116 101 89 88 105 109 111 114 105 103 111 90 84 80 84 93 82 62 46 54 48 31 37 37 41 47 49 52 64 74 90 90 89 82 79 82
109 77 90 100 99 112 126 120 117 99 89 107 109 108 102 100 101 95 88 83 111 80 79 88 55 36 51 58 55 49 46 38 39 42 34 38 46 67 84 89 89 91 90 92
72 94 108 105 107 101 109 103 93 122 107 98 92 102 106 93 101 100 108 102 97 101 74 72 54 63 57 79 49 59 47 42 44 44 39 48 57 64 72 84 82 91 96 103
89 87 90 110 122 89 101 107 102 104 109 97 91 86 106 95 103 111 103 120 87 118 85 67 78 91 76 70 57 55 52 45 42 42 38 42 54 71 76 79 80 77 91 99
78 80 91 99 121 120 96 62 78 111 136 127 105 106 91 99 115 93 132 103 96 104 97 77 98 89 87 80 60 59 60 53 47 46 48 43 53 63 76 87 90 90 90 108
105 98 90 106 93 79 81 73 82 69 110 117 100 76 75 122 138 99 124 116 95 106 92 80 80 67 93 85 71 74 68 58 52 56 52 57 59 58 59 70 88 100 96 106
82 91 90 85 92 81 77 95 94 94 103 97 94 90 98 104 107 117 113 117 115 115 129 120 104 89 89 79 85 86 75 68 66 63 57 57 61 62 63 66 67 90 110 96
83 89 83 75 80 113 124 114 102 90 96 98 99 96 89 94 101 95 87 111 121 129 135 138 119 109 98 79 89 87 81 86 81 74 62 58 63 63 61 64 65 60 96 112

GFSNGP_con_3kmhel_030.txt.gz
Helicity
40 35 55 92 116 129 98 76 121 83 43 24 77 47 116 238 331 270 204 225 301 309 230 187 167 297 211 137 134 128 100 107 137 265 262 160 154 122 136 156 173 146 118 119
60 44 78 59 58 74 100 109 67 108 88 67 57 159 221 203 146 169 193 133 127 139 140 118 119 112 148 143 143 104 100 152 128 246 281 177 172 145 133 140 146 144 136 118
90 102 63 87 106 136 83 57 92 98 47 85 194 242 182 139 131 101 126 122 126 137 150 118 122 167 179 97 128 173 139 126 178 286 353 178 124 107 137 160 163 149 125 121
111 92 97 136 112 201 89 129 114 86 77 218 277 244 153 240 184 181 190 162 148 118 83 66 107 102 94 95 187 214 209 211 208 336 288 158 136 157 184 189 156 137 115 169
123 125 93 30 265 153 136 54 52 223 255 203 174 107 142 188 152 149 146 116 47 35 71 81 68 95 105 141 178 167 211 110 209 140 283 190 199 217 226 165 135 126 150 147
155 153 141 142 151 217 73 104 226 215 184 140 114 104 94 108 106 88 62 62 54 50 74 72 100 172 221 218 148 123 112 222 223 189 104 181 236 258 183 131 123 155 130 108
94 124 76 92 123 110 180 220 172 154 121 119 76 88 111 112 84 40 44 78 79 110 162 189 211 198 205 133 89 123 107 78 56 200 146 182 272 253 132 119 144 145 104 58
97 114 73 216 195 267 206 162 180 193 162 102 111 152 141 75 68 81 107 121 156 196 190 194 184 149 112 121 101 103 86 106 173 144 144 211 217 162 132 134 145 131 87 75
147 123 123 128 227 282 285 325 238 140 145 89 121 166 112 81 95 106 132 165 178 167 174 156 96 91 163 165 144 158 68 80 110 178 200 213 222 142 121 121 135 106 89 96
169 178 113 274 327 338 221 178 79 80 18 62 103 88 98 112 108 143 176 151 167 172 123 116 127 173 131 161 167 66 93 194 190 185 138 143 168 104 103 114 102 109 114 119
128 136 188 375 300 196 170 93 66 53 82 95 126 137 113 127 133 136 133 152 142 118 124 122 146 171 180 173 123 101 131 126 85 99 138 173 100 73 82 102 114 127 124 136
156 268 247 263 187 154 162 94 86 92 135 157 104 112 142 143 132 137 145 107 117 124 133 115 156 163 130 140 145 129 109 93 89 85 140 63 55 66 96 84 96 97 95 126
327 262 234 189 151 138 132 122 96 153 123 99 142 159 132 123 141 122 100 99 123 131 124 113 112 133 162 170 147 151 108 77 88 95 53 56 59 70 74 73 85 75 82 120
308 202 207 149 173 148 71 99 172 120 111 153 155 136 139 137 111 94 90 115 123 120 131 107 108 133 145 113 130 132 102 75 72 48 50 58 68 74 85 91 89 93 100 127
180 129 138 167 130 45 123 176 166 127 128 128 145 149 123 111 94 90 99 119 133 102 108 96 100 87 74 116 111 92 92 67 62 40 50 62 71 76 87 93 97 96 87 139
125 141 195 176 139 170 170 165 133 126 116 131 140 118 120 96 85 84 77 123 117 106 99 105 94 103 94 103 83 75 59 74 64 47 52 59 70 83 88 99 103 96 92 107
175 218 208 178 165 170 150 117 143 137 107 114 115 129 111 95 91 84 106 115 120 129 118 88 103 88 93 74 67 57 47 79 53 40 50 61 72 78 90 101 108 105 96 136
221 249 181 173 151 134 114 132 138 117 111 128 121 121 114 115 105 98 107 113 107 104 108 89 105 84 79 62 73 54 58 55 52 51 57 63 64 77 88 104 114 113 106 125
174 163 158 140 118 137 133 115 116 121 108 121 124 115 114 116 103 107 106 90 84 62 128 96 81 74 62 68 76 51 57 52 46 53 58 58 62 69 85 96 102 119 115 111
155 145 108 109 118 103 102 97 108 111 110 117 119 103 91 87 91 103 93 100 94 113 95 91 89 68 50 58 66 53 58 57 50 48 56 60 54 59 77 96 108 115 117 121
118 112 99 88 89 97 101 109 124 114 109 128 118 89 86 95 107 108 100 104 97 138 101 86 97 73 69 84 88 72 66 67 56 47 50 53 51 57 66 78 100 108 120 119
109 104 93 91 98 99 111 114 112 130 128 117 129 106 94 96 110 104 101 124 110 139 128 112 112 97 92 97 80 70 67 73 62 57 57 52 52 60 76 88 96 100 104 130
89 89 90 99 105 106 118 126 117 107 108 105 117 116 117 114 123 103 101 119 127 122 134 123 99 119 122 128 114 86 71 68 63 57 49 51 54 53 60 72 93 111 108 102
82 91 102 119 125 123 107 91 84 99 110 106 107 134 115 113 119 130 120 118 110 120 132 117 102 110 112 119 118 98 80 70 72 68 57 57 61 51 51 62 77 103 131 118
102 115 121 127 119 112 89 107 109 117 127 102 104 115 108 113 133 119 123 116 129 117 109 99 115 107 129 123 96 87 83 84 85 78 72 68 66 67 59 49 51 58 95 129
101 120 130 114 103 99 105 103 151 154 107 94 97 94 92 110 122 120 117 105 113 111 114 121 153 156 155 147 116 95 94 109 105 101 93 94 78 73 69 64 61 58 54 109
113 119 117 95 102 106 119 164 146 111 99 93 94 87 83 88 93 92 90 109 117 115 127 125 139 159 178 168 150 126 112 122 116 129 128 115 94 84 84 75 70 63 55 50

GFSNGP_con_3kmhel_033.txt.gz
Helicity
63 56 59 79 69 60 66 116 215 119 123 198 209 187 218 258 262 208 148 119 104 64 66 123 111 121 166 157 124 123 180 146 115 227 320 320 270 200 104 134 157 141 143 123
64 110 115 76 37 72 80 169 189 168 147 151 152 207 241 168 149 124 73 18 51 94 112 122 108 120 122 142 122 144 190 157 180 259 345 264 264 199 119 123 191 189 160 171
63 95 80 122 102 114 109 135 203 242 211 217 257 187 157 139 103 56 30 68 118 115 129 146 106 86 113 153 128 190 203 152 141 172 329 319 274 211 131 164 229 206 189 223
95 103 124 100 122 251 190 202 173 286 375 350 296 121 92 58 73 88 110 163 151 154 148 90 109 157 218 194 201 228 189 195 210 168 246 247 158 163 158 226 204 173 223 159
144 135 97 118 194 153 180 192 163 229 215 209 165 81 83 91 132 128 144 128 113 87 122 143 162 185 170 152 113 86 131 136 115 87 106 125 183 233 96 192 189 197 176 127
177 186 128 143 208 153 188 217 196 204 192 163 88 77 91 117 107 114 153 144 117 110 155 174 162 125 101 108 134 161 158 169 103 41 72 101 99 37 129 143 214 215 128 100
184 174 98 84 108 144 227 181 268 218 163 135 120 90 104 93 104 159 125 126 149 169 163 157 112 119 120 158 178 193 162 129 88 56 113 104 43 132 173 195 192 141 85 31
172 168 109 106 203 209 244 323 296 199 144 171 157 100 119 102 138 140 158 166 169 187 184 137 104 132 157 150 187 175 125 40 51 72 94 89 174 201 153 171 137 75 59 33
177 135 99 185 253 369 325 304 240 186 199 199 131 135 151 165 169 154 137 137 167 165 123 104 125 126 151 175 195 150 74 64 92 101 76 89 122 136 129 101 74 56 59 67
235 126 239 372 425 408 343 287 176 149 192 154 166 160 154 177 163 135 147 160 123 106 122 118 115 110 130 172 188 145 90 66 95 86 66 106 126 113 69 68 66 68 80 84
225 239 315 337 323 262 241 174 101 118 152 175 199 170 200 163 138 153 149 117 114 114 112 105 106 104 122 183 201 139 96 72 86 80 115 114 76 41 61 51 62 71 87 108
189 178 242 217 231 205 154 107 117 171 222 181 212 185 159 149 163 148 122 118 112 103 96 112 124 112 135 183 156 113 84 67 91 90 90 62 34 49 69 62 59 67 73 120
251 316 320 273 189 132 128 147 183 213 175 200 179 160 171 167 145 137 124 118 103 92 121 104 101 114 134 123 94 84 79 88 89 97 52 31 33 49 39 56 57 54 51 58
320 311 296 181 160 141 149 154 226 232 209 174 172 181 173 145 140 131 129 105 87 105 101 113 119 126 120 108 98 90 94 74 85 61 39 38 44 58 66 66 64 75 63 77
240 221 200 159 138 100 128 245 249 204 176 172 165 156 138 147 129 121 112 89 96 105 105 117 89 98 100 75 88 68 70 62 69 49 36 38 47 58 65 62 76 90 84 93
185 198 188 153 210 267 265 246 189 172 162 140 137 124 128 124 118 105 94 91 99 90 101 108 81 96 98 86 71 64 48 58 69 48 40 41 49 57 60 60 72 88 93 106
293 302 305 269 251 230 194 169 158 131 121 123 109 112 107 115 113 98 104 103 105 96 99 109 102 91 91 77 66 64 71 60 45 44 46 51 55 61 57 69 81 89 98 121
259 285 270 231 202 168 157 138 125 119 110 101 103 111 120 121 108 94 77 78 74 87 100 100 104 83 78 69 78 70 67 58 52 54 57 57 56 62 75 77 86 96 99 123
269 245 205 182 153 136 112 96 99 96 89 101 119 114 108 93 80 81 85 87 91 90 95 100 85 79 66 70 81 80 59 60 61 58 58 55 58 62 64 80 96 95 113 115
154 143 139 112 104 98 74 76 86 88 92 112 115 125 118 79 80 71 80 108 88 113 135 84 92 96 83 75 78 84 73 66 72 66 59 55 59 60 58 64 85 95 98 110
121 109 98 76 60 65 76 77 92 94 94 119 137 131 117 107 92 75 90 114 90 113 132 115 117 108 97 84 100 114 90 89 89 76 66 53 48 45 50 59 72 91 93 106
95 82 69 68 78 73 75 77 97 114 123 120 111 103 99 102 96 91 124 129 108 94 137 151 136 121 116 105 135 137 120 102 94 86 77 64 62 46 38 46 64 80 87 95
60 68 65 71 72 73 87 96 108 116 104 106 101 70 84 125 130 123 99 101 122 112 141 152 137 109 92 114 139 135 117 101 97 90 85 83 71 64 62 47 52 68 95 108
62 59 62 70 90 114 101 116 131 101 93 126 118 84 96 110 113 150 128 118 122 107 97 141 120 120 107 124 141 156 133 118 115 111 111 92 89 86 68 64 60 52 61 93
54 67 86 102 117 139 149 128 106 86 130 122 96 79 66 98 114 89 101 111 103 105 97 105 133 136 121 134 148 166 163 140 123 108 128 127 117 108 100 90 78 71 64 59
76 103 128 129 150 142 132 123 103 107 129 108 89 66 78 99 113 115 110 94 98 92 97 107 117 144 141 143 159 165 189 169 145 127 146 142 138 136 121 110 108 98 86 69
112 126 138 125 105 111 127 130 148 141 141 144 115 96 92 96 101 90 81 81 72 64 74 85 92 115 131 143 161 204 224 207 172 143 150 168 182 161 128 105 107 107 95 83

GFSNGP_con_3kmhel_036.txt.gz
Helicity
95 91 84 77 80 70 81 119 184 121 214 300 315 327 281 250 248 255 243 192 132 79 27 -7 110 122 127 133 132 136 132 145 145 160 169 186 164 170 167 188 308 206 129 203
95 114 115 82 54 99 110 115 152 263 312 285 297 279 268 240 211 168 123 86 22 17 40 133 160 178 132 124 155 187 189 188 179 176 182 186 152 167 115 295 205 133 202 167
70 118 116 97 118 109 142 143 148 204 271 295 259 214 185 166 121 77 32 -61 23 108 151 193 155 137 173 161 136 140 128 141 143 144 90 67 90 129 190 99 23 181 156 191
82 117 114 129 78 132 230 163 214 283 303 273 228 192 154 108 54 4 -8 79 179 190 188 163 153 167 143 111 85 97 135 101 86 60 42 54 83 138 118 109 62 120 176 181
117 119 118 149 171 153 157 121 178 227 231 207 160 138 124 106 38 19 92 185 182 157 138 134 126 90 93 94 95 123 138 110 80 62 60 123 150 106 111 64 56 150 150 168
155 152 112 118 159 172 164 128 136 212 209 183 148 161 65 49 87 149 190 167 142 117 123 134 110 86 121 118 174 176 117 82 48 41 65 111 96 72 29 108 171 153 144 112
188 158 128 89 166 128 209 97 152 185 202 188 138 73 107 162 183 183 170 183 161 163 143 121 117 126 145 173 179 150 124 80 33 48 57 89 114 60 162 194 151 132 94 64
193 202 117 108 226 205 123 194 213 244 222 173 144 129 178 228 232 205 197 165 137 125 129 110 112 127 132 135 145 159 137 97 80 60 89 112 106 137 148 145 118 73 73 57
165 134 123 131 153 222 285 290 270 259 218 191 190 190 262 264 213 183 160 125 118 143 127 112 101 102 113 110 140 170 158 127 73 74 91 98 124 155 136 101 68 56 68 72
228 160 173 224 290 291 310 294 287 254 218 192 189 236 252 213 189 174 136 134 134 132 128 116 95 91 98 104 139 183 169 114 59 77 86 155 126 109 81 65 64 60 71 79
218 245 298 272 247 255 285 270 256 196 185 194 244 241 204 196 184 146 139 143 136 133 129 120 99 76 95 125 144 146 138 105 80 88 90 97 100 52 41 40 53 69 79 99
182 148 207 163 212 261 264 224 159 172 222 263 218 204 192 177 138 141 150 137 141 131 132 117 83 89 104 122 135 112 118 114 96 100 107 92 55 60 57 48 49 55 63 119
147 205 210 217 231 237 206 133 134 235 275 227 207 186 154 133 135 154 148 140 141 126 122 103 84 91 103 107 120 109 96 111 87 90 76 56 48 49 49 67 59 51 66 71
270 315 322 234 208 178 209 228 324 298 228 200 173 145 135 146 153 143 137 133 127 117 111 101 94 87 86 106 102 98 89 79 76 68 55 42 45 47 51 57 40 49 55 76
238 231 203 212 213 178 277 285 274 226 193 177 148 141 142 159 139 132 130 122 117 108 103 100 97 95 86 99 93 86 87 75 72 68 47 42 44 47 50 51 47 56 67 78
275 275 266 283 312 351 280 226 193 171 157 142 136 139 141 139 127 125 118 111 119 101 89 89 105 101 97 97 87 81 81 76 78 58 50 46 49 51 53 53 48 64 65 79
379 387 379 387 320 194 172 144 147 144 133 121 130 131 131 135 126 120 112 92 98 95 83 87 99 107 96 98 89 86 96 73 62 61 62 58 59 53 55 55 60 58 72 89
420 382 369 150 113 124 120 142 134 110 113 119 123 131 131 143 116 103 105 95 87 84 93 90 117 113 91 84 86 93 91 66 66 68 64 64 64 61 60 58 59 69 69 77
267 107 84 113 106 113 110 105 97 89 99 104 111 100 114 126 112 108 96 90 76 91 98 117 106 107 102 95 86 93 90 82 63 71 73 69 63 57 58 61 59 71 75 74
110 104 111 105 90 83 77 69 75 76 76 95 106 121 125 125 99 100 108 100 137 141 111 114 105 118 132 102 91 98 102 93 83 80 84 76 69 53 57 53 54 62 69 77
110 99 89 71 62 56 60 61 81 82 87 123 136 121 129 105 82 74 98 100 111 121 106 94 118 135 142 123 116 113 122 128 121 98 92 79 78 66 61 58 53 62 71 82
71 60 53 51 61 59 62 69 93 120 132 132 139 137 126 98 90 99 118 115 122 87 71 88 96 116 146 131 125 132 140 151 147 118 103 96 82 89 79 67 63 67 72 85
50 53 56 61 62 65 80 96 122 149 148 144 130 121 109 104 103 91 98 80 111 87 96 98 87 72 104 119 132 123 135 134 142 131 125 115 103 99 105 94 87 77 68 76
54 55 60 57 70 96 91 102 153 164 136 111 117 98 102 124 117 100 123 99 82 103 99 95 93 68 86 110 138 130 120 131 149 154 139 121 107 110 123 122 99 85 82 78
64 60 68 79 92 124 144 161 174 134 124 142 117 110 105 133 137 126 130 115 84 77 72 58 59 65 80 90 128 157 144 154 167 173 175 152 125 137 155 146 134 129 112 105
70 80 100 113 146 161 178 185 177 150 150 148 146 124 103 106 135 133 125 100 85 73 65 57 53 60 69 70 80 106 132 150 154 169 182 177 150 131 135 140 129 120 101 107
93 101 118 134 152 178 191 191 201 172 164 172 162 135 105 103 117 141 115 93 66 57 52 49 39 41 48 54 70 84 95 95 117 175 180 218 155 135 136 136 108 84 76 85

GFSNGP_con_3kmhel_042.txt.gz
Helicity
94 97 76 63 73 104 121 130 124 87 118 102 168 216 272 298 302 295 276 259 230 242 237 156 176 211 219 172 114 107 107 104 103 100 113 132 131 116 114 140 161 185 164 154
77 120 129 63 60 106 133 154 117 133 99 126 155 251 271 273 276 256 228 209 206 187 150 191 205 182 145 109 94 98 91 92 95 127 137 128 120 115 130 131 124 135 125 87
64 114 113 14 96 165 194 206 201 196 127 201 212 232 263 261 246 220 184 163 154 151 151 189 181 129 109 86 88 93 101 103 127 135 126 119 115 118 127 122 119 105 86 98
83 109 92 79 107 87 141 150 203 183 154 180 217 234 231 221 205 175 160 166 149 115 124 165 140 124 107 118 116 126 120 121 118 130 134 127 131 115 101 94 95 73 94 137
115 103 102 76 114 149 160 104 170 177 199 237 240 257 160 165 192 196 184 147 106 135 175 167 153 124 127 136 143 139 123 120 134 149 156 145 141 123 110 109 112 96 120 141
168 148 102 70 89 121 168 156 124 206 199 193 243 230 147 171 210 194 196 183 178 184 174 166 133 113 139 141 135 136 126 121 141 170 183 152 142 117 123 135 152 170 138 142
206 179 133 81 135 170 202 73 90 121 144 207 191 179 178 208 269 242 271 257 218 201 159 112 104 132 149 139 139 121 119 121 137 177 180 147 129 127 131 136 145 142 124 100
175 194 119 115 198 133 86 107 88 91 151 224 309 248 249 280 326 239 271 250 207 154 117 101 114 142 142 141 121 122 122 134 155 167 161 153 122 123 146 123 133 129 97 72
131 112 97 24 92 105 124 138 136 162 201 244 273 285 302 317 211 193 255 211 141 123 110 109 128 150 149 129 127 126 136 129 124 133 136 134 140 144 133 125 115 70 71 71
161 97 102 84 82 107 140 142 158 194 250 271 290 310 350 218 196 267 208 147 122 117 123 133 134 143 139 130 136 138 124 116 128 132 128 127 133 118 112 101 77 68 67 70
124 86 128 89 104 135 168 201 257 293 283 291 360 372 179 126 233 190 140 119 119 132 134 128 132 141 139 132 128 124 120 107 117 120 136 145 143 119 99 80 83 78 76 84
141 99 124 93 108 147 195 206 236 287 329 354 340 143 220 257 179 125 116 128 138 139 132 130 136 145 138 123 121 108 106 112 109 119 134 125 114 87 65 66 52 50 46 85
114 111 121 137 136 166 200 204 245 321 359 294 257 253 255 182 104 124 139 140 137 129 129 132 139 133 125 120 116 117 113 111 122 124 130 117 114 96 78 59 60 49 53 50
135 146 142 134 135 174 233 324 407 473 388 434 215 176 128 111 126 126 122 125 123 115 106 111 127 118 105 114 121 125 120 109 120 120 131 131 117 91 81 91 68 62 68 71
149 144 132 179 255 276 318 393 476 475 305 162 122 98 90 96 97 112 121 113 103 90 99 119 117 98 113 123 123 121 132 134 129 121 118 115 109 101 95 93 84 76 73 73
164 193 246 296 318 397 525 549 358 187 118 103 78 76 80 100 101 105 103 92 106 100 100 112 119 117 110 126 120 104 120 127 142 136 128 120 115 113 96 96 89 80 71 76
235 249 331 411 516 408 212 143 160 135 94 60 52 83 90 101 102 94 95 95 107 118 124 114 117 104 115 130 133 117 132 137 137 125 122 120 122 111 107 108 102 92 74 85
348 313 241 207 185 193 230 178 93 45 43 63 88 101 96 103 89 90 105 118 110 103 99 98 115 117 118 127 132 152 147 148 150 139 129 121 114 113 105 106 108 102 75 67
239 220 213 213 181 146 86 39 28 49 71 73 90 71 81 77 101 112 132 135 105 109 98 98 111 124 120 105 110 143 186 181 159 160 149 133 124 125 122 110 105 107 100 83
253 208 157 113 63 38 33 43 60 62 61 82 86 81 75 81 124 135 162 153 135 127 119 115 126 128 121 109 110 113 121 139 168 175 153 154 156 147 146 138 129 130 112 105
146 101 79 59 42 32 27 42 58 55 52 86 96 92 112 127 159 173 184 172 147 94 104 111 122 113 124 126 123 138 126 119 133 143 162 170 172 172 171 164 149 142 135 130
62 56 42 32 30 31 44 49 54 67 75 83 99 128 153 154 188 188 201 178 165 119 121 97 100 100 109 96 105 103 108 113 122 135 139 160 159 159 160 157 162 159 147 140
47 42 42 42 47 58 63 60 62 67 78 98 125 152 203 227 260 256 220 181 163 143 126 107 95 88 84 105 104 93 86 89 92 98 121 133 142 148 153 151 165 182 177 145
58 74 79 85 81 83 86 77 82 94 120 144 164 191 218 239 242 257 221 199 180 166 138 111 109 105 102 100 94 73 60 58 66 91 102 113 134 142 140 142 146 159 195 173
102 107 107 103 93 82 80 77 88 103 116 126 137 142 166 234 253 248 214 194 153 180 139 127 118 105 88 84 71 56 55 58 59 57 58 84 103 148 157 149 146 148 180 161
110 90 84 97 108 102 99 100 103 111 120 132 135 126 145 170 159 198 200 212 226 188 149 122 105 94 81 74 61 53 57 57 52 54 63 69 67 91 161 165 144 184 169 153
92 85 75 75 81 89 100 103 106 119 129 137 145 145 160 176 185 169 206 255 205 167 152 126 126 118 96 79 70 60 51 53 57 56 63 84 116 147 189 185 155 140 176 196

GFSNGP_con_3kmhel_045.txt.gz
Helicity
84 87 78 66 54 84 96 138 122 106 125 91 74 153 191 228 267 304 291 271 260 237 210 225 168 167 202 184 149 126 102 90 97 101 105 114 128 114 110 123 133 121 115 113
77 101 110 64 46 71 90 127 105 167 101 99 136 190 222 237 262 264 246 230 214 209 203 188 206 185 167 133 105 90 87 91 92 103 111 126 139 116 114 131 134 138 120 99
67 104 112 43 36 126 177 201 192 172 141 153 138 136 171 218 216 207 205 202 205 199 182 160 171 178 146 105 90 107 104 95 106 125 135 137 134 117 130 136 123 114 99 102
78 96 83 86 116 118 87 112 163 190 154 118 135 149 157 152 182 201 200 192 191 183 177 163 192 150 103 102 114 109 117 123 123 126 137 141 149 139 143 149 121 111 120 124
83 91 83 76 106 122 117 91 108 120 172 170 183 195 137 136 171 180 192 214 223 190 223 220 158 117 108 110 107 115 128 121 109 109 124 150 153 144 139 128 108 117 140 138
115 83 55 57 68 73 86 94 88 127 148 157 171 174 89 141 196 260 258 239 262 232 201 188 140 108 107 104 115 129 122 109 107 121 147 156 138 139 128 115 124 139 152 123
157 117 94 68 113 104 147 85 62 34 84 139 119 121 150 206 270 273 256 301 278 210 227 178 104 96 97 113 122 115 111 115 131 148 148 142 138 124 110 134 155 137 126 110
137 132 59 76 106 99 72 72 81 49 90 103 178 220 239 272 302 329 368 300 205 204 170 112 87 89 100 116 116 115 124 131 139 125 106 115 114 118 110 106 126 133 114 64
92 97 91 29 47 89 107 109 127 133 136 172 253 266 291 312 357 339 317 223 216 162 109 82 92 98 107 115 122 126 132 132 119 95 93 111 110 109 107 116 110 101 79 60
121 80 65 41 71 108 140 133 127 131 150 190 291 315 364 412 382 364 167 195 171 113 93 89 115 111 109 115 128 142 142 125 103 89 94 101 102 112 109 104 95 87 72 56
100 65 96 87 89 107 124 150 170 191 215 265 351 383 429 402 349 167 189 144 110 97 93 98 104 105 114 124 136 143 124 108 94 95 95 99 103 106 100 91 85 83 69 58
98 89 101 94 97 98 123 145 193 267 345 371 383 387 396 321 190 148 136 90 87 97 97 95 97 102 114 127 133 119 110 109 114 95 102 98 102 95 83 60 65 70 57 57
107 96 93 108 111 118 149 190 241 306 348 404 451 392 259 163 155 114 86 93 88 89 87 83 88 99 104 96 106 105 116 104 107 99 97 100 107 102 77 70 66 74 52 51
125 99 119 144 148 180 220 267 386 436 492 472 234 118 188 186 94 78 79 84 85 76 74 77 79 79 67 70 87 108 121 115 106 97 94 102 88 93 103 76 54 57 74 80
139 129 133 171 228 267 321 419 495 419 249 171 146 162 108 75 59 61 77 80 72 68 69 81 79 65 57 69 76 101 120 114 113 112 112 107 102 98 98 84 75 68 66 77
175 195 222 275 295 358 393 386 289 204 166 114 84 67 53 58 61 60 66 78 98 83 90 117 108 69 70 70 85 116 127 107 107 118 113 104 94 95 98 93 80 75 73 76
204 201 234 296 301 256 216 199 187 181 125 71 41 48 57 59 64 58 56 91 115 113 113 119 101 69 81 86 97 129 148 116 109 127 125 109 108 91 91 93 88 88 78 83
225 200 211 196 174 157 150 150 124 82 51 38 56 64 68 77 74 74 89 118 119 129 110 115 112 95 100 85 113 135 139 127 110 113 118 122 124 123 104 98 98 99 89 79
129 123 128 144 136 131 104 68 46 38 35 43 59 58 72 75 87 88 118 150 140 141 137 138 114 100 96 96 114 133 129 120 101 87 85 105 125 113 106 108 108 105 108 105
147 154 146 116 69 55 63 56 40 39 41 55 62 70 80 82 97 121 174 172 184 182 179 133 118 99 83 91 109 124 113 101 90 86 88 89 87 104 139 131 130 129 128 128
121 96 91 88 77 49 42 44 53 54 54 63 69 75 92 108 130 167 188 213 195 180 176 153 128 111 133 111 93 94 86 92 98 94 86 77 75 80 91 91 108 130 131 128
99 90 72 55 50 50 70 71 65 54 56 63 76 90 105 110 133 172 224 256 200 212 216 200 145 121 123 95 83 89 83 79 87 88 80 73 67 62 64 70 79 86 95 109
83 75 74 75 66 67 67 67 58 57 60 68 80 103 127 147 166 188 180 153 182 207 264 197 160 137 136 105 96 90 82 77 73 57 50 54 67 71 70 76 84 80 81 91
105 104 91 74 58 64 75 72 56 43 48 76 112 136 156 172 162 170 181 198 168 174 137 190 174 149 113 95 99 90 81 77 69 54 54 53 58 47 60 75 84 103 112 96
106 89 87 78 82 71 68 59 55 76 85 95 93 102 115 141 165 165 193 178 134 126 204 245 209 173 112 115 117 112 99 85 71 53 51 56 60 61 60 59 51 81 113 94
118 98 83 86 74 67 66 69 65 64 84 99 116 120 132 141 139 137 130 134 114 175 248 207 166 147 127 123 118 109 98 93 93 78 61 61 67 69 75 87 93 126 148 116
109 104 89 81 73 63 61 66 73 86 103 117 126 139 140 130 127 128 120 112 159 178 170 167 160 138 117 114 117 115 102 94 95 82 61 58 60 61 65 73 91 115 146 176

GFSNGP_con_3kmhel_048.txt.gz
Helicity
61 60 46 53 39 39 30 20 69 33 43 48 107 92 110 133 174 236 249 248 251 253 235 217 225 227 127 194 183 152 131 110 102 98 98 106 97 101 108 110 114 121 143 130
50 56 67 56 52 30 26 25 25 10 25 73 101 120 139 132 166 193 220 238 250 232 213 203 193 151 181 186 186 129 109 86 90 98 89 88 105 113 118 114 114 125 128 132
36 69 60 28 29 69 86 94 82 76 55 151 102 114 96 113 144 165 202 230 233 213 192 187 185 195 179 175 137 109 84 84 98 97 91 102 116 124 115 118 117 131 130 135
51 56 52 78 76 93 56 35 59 46 115 111 141 131 105 88 112 138 171 224 226 213 218 209 203 191 166 144 109 82 84 93 101 112 106 109 120 119 123 125 135 124 133 133
72 59 63 22 78 77 76 66 61 36 79 124 153 146 106 89 95 129 190 223 226 221 217 233 216 188 140 102 88 85 87 94 109 110 101 112 117 125 110 126 105 127 134 114
106 57 32 88 86 88 64 54 93 66 75 92 107 129 139 80 111 194 233 267 285 284 260 232 249 133 115 96 84 79 93 99 98 99 110 120 120 103 117 104 110 134 144 132
123 93 77 83 112 81 88 137 89 35 35 68 101 139 150 133 179 226 270 322 330 291 313 293 157 107 94 75 72 99 93 89 98 119 130 120 106 93 100 114 138 140 133 103
121 97 51 100 83 88 122 94 113 101 108 106 172 177 193 218 267 334 369 378 362 358 342 238 114 95 60 69 95 95 88 98 116 124 131 122 95 88 110 126 115 129 125 90
80 108 118 48 68 105 113 133 153 165 146 139 175 202 238 274 333 375 403 425 387 354 247 148 91 62 66 74 89 96 101 117 123 121 117 107 102 105 109 106 110 94 93 72
101 79 50 39 59 82 88 100 121 133 133 136 176 246 330 386 417 434 422 484 338 172 148 107 72 70 64 81 90 93 107 133 126 118 113 103 114 108 97 98 95 90 83 77
80 58 71 110 124 117 111 118 128 143 148 159 225 273 362 445 500 426 367 290 156 138 97 72 71 63 76 84 88 91 118 125 105 104 106 112 106 99 104 88 89 77 71 76
117 146 123 144 129 120 122 145 169 190 249 285 289 364 453 457 340 289 262 169 104 80 64 64 70 72 76 82 88 100 108 111 116 110 112 118 100 100 110 105 84 77 59 64
138 120 124 132 138 135 166 189 234 286 306 366 407 433 380 337 240 102 72 81 56 57 71 75 74 74 77 90 85 80 90 93 104 107 116 103 103 99 102 85 107 87 76 72
133 104 126 194 165 201 257 297 344 365 356 283 226 177 129 116 110 73 60 50 62 70 73 79 81 80 91 87 88 95 87 97 95 104 102 110 110 110 97 83 79 62 83 90
185 184 186 178 214 238 255 283 335 285 214 200 201 175 124 86 56 42 47 64 71 69 72 81 81 84 97 97 93 87 96 101 118 119 113 97 114 117 107 89 78 68 60 85
160 183 191 200 198 221 263 250 192 139 118 134 111 97 73 47 38 46 55 68 81 78 79 130 136 101 110 101 97 100 112 130 130 110 114 110 85 97 108 99 90 80 75 63
186 160 161 190 181 147 138 141 154 140 123 102 72 49 42 49 48 46 52 78 126 130 122 144 145 128 139 119 106 112 112 115 123 125 132 131 122 120 104 101 97 91 87 82
155 143 127 114 122 141 152 153 143 115 88 72 60 59 57 65 63 68 87 120 138 145 139 139 187 168 161 126 118 126 127 130 137 140 136 126 110 108 109 99 87 92 90 87
137 133 143 163 160 154 146 129 111 91 71 65 60 63 65 70 67 69 92 141 160 152 129 172 218 229 166 133 135 121 120 145 135 123 112 93 99 89 88 95 97 107 99 100
157 167 165 172 163 147 133 119 88 99 91 77 61 60 62 66 77 90 112 144 161 177 152 199 234 232 181 145 132 115 111 125 99 97 102 87 88 92 83 63 60 73 87 100
182 170 168 157 151 135 116 98 95 94 77 62 60 55 52 59 67 94 122 159 146 180 170 187 213 232 195 207 177 148 114 117 101 88 85 83 78 74 66 60 63 63 65 73
166 168 159 142 131 112 100 96 81 65 64 62 56 59 70 80 99 115 152 164 185 181 197 198 202 180 222 211 94 141 112 94 91 85 75 66 64 59 52 57 57 56 66 75
161 146 131 121 114 107 90 89 67 64 56 53 44 55 76 105 138 164 159 158 175 168 179 167 156 205 189 125 120 124 116 87 92 91 85 77 75 59 57 57 50 51 58 56
139 134 120 106 98 97 99 90 68 56 49 42 96 111 116 126 148 156 169 147 137 147 141 131 160 256 150 123 126 134 115 113 116 108 98 85 86 79 71 69 63 50 48 40
151 131 124 107 102 93 81 73 44 55 82 94 94 97 117 126 144 138 146 150 136 119 120 220 221 169 137 136 154 135 121 121 118 101 97 90 85 88 78 72 76 80 81 75
158 132 112 113 99 86 73 61 61 65 68 69 79 85 92 98 110 115 124 138 160 153 153 163 146 120 128 147 150 136 121 116 111 99 94 91 91 88 76 67 68 71 74 79
140 131 112 105 98 80 75 65 54 61 70 79 78 87 89 90 85 94 123 154 157 162 153 119 87 99 108 130 131 124 116 102 99 94 91 85 83 77 65 52 49 49 56 67

GFSNGP_con_3kmhel_051.txt.gz
Helicity
32 70 71 73 43 27 0 1 -33 19 21 30 59 98 95 123 133 174 180 193 204 209 230 259 218 209 236 191 150 160 167 153 140 131 113 107 109 119 120 119 104 104 134 123
56 47 40 39 24 24 27 15 -21 -20 -27 25 90 163 106 156 122 139 158 164 176 188 235 214 214 219 208 189 169 177 156 138 126 119 100 99 105 107 105 111 112 131 179 137
45 79 73 40 9 6 3 18 40 36 40 143 156 113 76 134 113 104 133 152 167 191 242 218 243 222 208 199 198 199 155 113 98 95 98 99 94 103 113 118 127 186 152 147
62 49 37 47 65 68 58 21 22 44 45 77 102 142 102 107 105 107 114 142 182 235 267 258 276 260 296 226 211 196 133 92 76 96 94 88 90 101 102 140 168 151 116 129
80 41 50 33 73 52 57 51 103 85 72 137 144 116 74 83 94 94 120 170 221 255 252 278 299 327 263 247 197 215 138 92 84 87 85 85 86 111 135 134 169 130 104 128
101 79 43 102 107 75 62 41 175 111 106 92 56 87 170 155 102 110 163 204 257 246 366 341 346 350 327 232 286 180 100 82 79 82 84 94 126 130 124 128 128 204 146 149
91 96 80 128 107 80 74 184 145 91 95 89 64 198 191 159 138 159 213 279 365 384 296 361 375 343 378 184 140 83 88 73 74 83 80 107 118 136 95 110 192 167 136 115
119 110 56 132 133 133 166 115 133 122 159 133 206 185 178 193 229 258 360 453 387 355 466 494 352 292 214 140 78 107 84 80 83 85 96 108 105 122 109 154 158 162 150 115
82 88 145 92 156 155 132 135 143 151 180 158 179 169 186 217 295 408 418 373 402 546 452 277 249 209 109 69 74 76 79 68 98 108 124 114 122 144 161 169 146 142 125 105
108 106 110 118 120 126 140 129 126 115 104 112 124 203 214 309 362 335 381 463 549 418 271 186 156 76 54 63 67 67 68 74 109 118 112 100 114 141 152 141 120 116 98 98
95 83 116 186 193 177 153 127 123 128 132 133 171 260 339 332 347 399 428 350 329 294 152 99 62 58 63 77 78 64 75 85 101 127 128 127 118 123 142 113 145 136 111 105
128 190 168 248 173 133 131 144 161 182 219 250 327 335 354 346 325 347 333 270 153 64 28 20 40 65 72 77 84 104 105 112 126 158 158 144 129 126 117 114 95 124 109 102
208 167 181 169 156 150 184 211 247 260 263 282 315 317 285 237 192 154 76 49 23 6 22 49 61 72 81 116 118 110 115 124 134 147 142 142 138 134 128 115 116 116 103 88
156 124 142 185 190 218 222 230 265 268 259 233 214 218 204 182 153 68 47 31 30 36 47 60 76 83 108 109 132 155 139 144 153 160 154 136 130 135 134 140 125 109 96 89
192 224 283 219 208 217 217 203 223 224 204 187 142 147 142 119 83 68 53 45 42 44 50 65 84 98 144 159 150 147 156 155 173 172 176 153 140 138 134 138 127 113 102 92
218 216 202 205 207 182 182 167 169 133 119 152 144 133 109 87 78 66 51 54 56 57 59 101 134 129 162 146 152 181 159 156 168 177 178 151 148 149 146 137 134 124 105 103
168 174 182 174 165 160 144 164 213 220 186 162 149 128 109 94 65 56 57 63 80 105 109 123 141 131 166 182 181 196 182 172 174 136 135 131 136 132 129 140 147 136 125 115
178 192 185 159 154 197 212 200 186 178 174 149 122 105 88 77 59 51 55 64 88 102 101 112 150 160 177 173 195 229 241 219 171 155 145 133 136 116 104 95 95 107 118 106
195 197 211 223 205 196 185 177 170 157 145 133 112 89 62 51 54 64 69 82 84 91 91 154 195 192 193 199 221 273 291 262 177 137 115 125 136 117 106 102 92 88 83 90
205 203 197 204 201 184 183 177 141 144 130 108 75 70 66 63 64 60 67 70 59 108 158 178 171 165 171 172 207 265 177 106 131 137 109 113 111 112 96 82 81 82 74 63
185 182 182 182 186 172 151 131 134 136 113 91 81 69 55 49 35 49 40 73 91 159 172 152 154 154 156 152 184 194 217 149 122 90 106 99 98 95 83 77 80 76 57 48
188 196 182 150 146 151 144 140 125 109 99 85 65 58 50 33 50 54 88 124 174 172 166 157 153 152 145 102 122 150 109 140 130 121 123 128 121 110 97 85 91 69 50 55
172 167 168 168 158 147 124 127 94 89 76 63 52 58 49 51 72 100 115 164 148 163 154 146 140 123 117 123 131 149 129 137 138 161 132 117 102 100 97 92 93 95 86 67
192 175 153 143 128 128 130 116 91 83 85 51 65 71 77 87 114 126 144 126 127 145 138 175 147 152 144 150 169 170 158 160 169 125 120 111 108 103 92 87 89 91 87 81
157 145 143 134 132 130 114 104 80 91 88 86 96 110 120 107 100 94 90 90 127 135 131 158 154 158 142 133 116 135 151 139 136 132 121 111 101 91 88 86 84 84 77 68
174 149 163 171 149 124 110 97 93 97 102 112 102 96 90 87 87 88 90 97 95 104 106 106 110 105 99 87 90 100 104 100 99 97 93 89 84 85 86 85 80 81 73 59
176 187 160 141 134 121 117 102 106 110 110 114 74 96 98 107 99 95 90 82 76 74 73 76 76 71 65 68 81 83 77 77 76 73 72 68 70 76 75 71 65 60 37 34

GFSNGP_con_3kmhel_057.txt.gz
Helicity
93 53 25 44 85 80 47 13 151 37 58 22 20 103 142 94 100 143 216 331 494 567 534 432 492 555 527 454 331 280 356 418 441 321 271 255 304 176 139 129 108 129 154 246
104 110 124 78 143 74 69 98 85 39 41 34 47 112 213 195 115 162 255 336 427 420 365 410 446 408 379 346 340 437 463 438 375 296 310 267 256 233 125 93 117 151 205 241
122 118 96 65 30 54 60 76 76 52 51 58 100 102 88 180 178 164 229 290 293 268 311 350 385 419 445 528 556 498 419 395 323 304 242 264 148 87 79 114 152 179 184 198
101 114 121 32 51 70 43 62 96 136 117 153 167 168 179 190 146 212 237 278 323 391 483 532 600 664 704 641 536 460 447 430 386 355 123 80 63 74 120 144 132 125 136 183
122 110 65 32 82 66 56 106 108 124 115 129 146 189 262 197 203 215 226 246 302 408 531 632 645 655 700 678 618 553 578 505 269 105 83 44 66 79 111 136 123 131 167 215
151 111 41 28 73 113 107 123 154 181 142 86 111 110 118 185 231 274 319 376 493 588 653 712 723 770 804 741 693 630 507 162 73 44 45 78 83 81 120 139 144 170 197 198
179 125 82 70 112 103 125 89 171 175 153 129 102 72 150 322 406 454 478 531 636 720 759 772 772 725 657 627 593 273 105 129 63 58 78 107 136 107 124 156 169 254 255 195
148 122 62 96 143 111 101 157 157 167 117 117 133 196 353 352 438 520 588 690 720 758 712 645 610 558 485 301 98 103 79 46 52 67 88 137 122 117 131 145 199 224 200 171
82 56 62 137 144 177 209 231 192 164 185 145 130 233 333 403 462 540 556 548 529 520 494 405 305 188 129 131 94 59 70 60 69 80 96 121 158 182 163 140 173 184 210 188
113 61 139 342 350 293 242 207 198 209 169 150 189 383 439 499 490 441 405 371 297 277 241 205 136 115 131 90 48 62 72 71 76 95 108 142 206 201 183 173 174 178 181 168
106 239 392 391 370 291 260 262 312 317 277 244 412 537 589 523 461 355 289 249 231 223 187 162 142 105 66 53 56 85 91 101 136 138 141 170 186 211 215 195 172 172 183 168
155 223 255 283 293 373 414 369 308 303 364 399 459 458 440 380 324 281 243 225 186 155 150 109 86 76 75 63 82 110 150 166 176 191 204 213 220 213 178 171 170 122 92 124
229 303 376 433 475 406 403 361 320 317 300 324 330 333 319 275 234 212 157 120 96 109 127 134 103 78 67 73 89 140 191 214 242 247 257 266 280 288 228 194 139 112 96 85
284 347 354 303 322 359 346 327 324 295 264 275 274 223 189 174 160 182 190 197 182 159 138 116 99 89 78 65 89 122 159 191 252 285 307 315 306 278 286 272 211 177 145 123
333 314 394 379 332 290 267 252 269 241 243 277 301 296 276 255 243 233 177 160 138 127 111 94 91 93 115 130 136 150 171 194 220 243 258 269 288 257 317 303 227 188 156 139
342 398 369 318 273 254 222 187 228 261 283 288 253 236 221 208 206 197 164 144 132 118 88 102 117 120 121 121 123 128 151 160 166 179 188 200 231 239 257 210 191 128 140 124
377 288 270 249 210 248 270 283 285 272 236 220 207 189 196 180 172 165 142 111 95 93 142 122 125 106 100 111 135 163 171 184 175 175 152 159 192 299 212 145 114 128 171 140
226 199 196 241 330 331 335 319 281 243 219 186 175 169 165 157 136 115 99 91 104 137 156 129 110 94 93 140 161 130 135 157 164 154 139 128 165 141 96 68 106 145 103 99
245 261 334 345 299 298 265 246 237 213 191 161 166 151 121 112 101 86 81 110 128 114 95 80 101 134 130 105 124 142 158 161 153 147 137 138 144 150 105 118 120 140 135 86
456 431 432 367 305 259 238 200 193 202 166 140 124 139 129 112 94 106 107 116 137 100 106 142 136 105 102 119 136 147 198 190 161 154 140 152 115 124 97 102 96 93 69 53
367 338 309 292 277 259 226 184 164 160 131 112 118 116 109 90 111 97 103 101 104 111 109 140 121 118 110 119 112 125 120 129 140 168 171 147 66 43 60 79 115 96 84 88
238 238 234 234 236 221 175 153 128 105 108 99 99 107 104 104 101 102 92 114 103 117 103 116 118 145 134 105 100 105 94 99 114 122 129 120 104 101 110 98 84 83 94 96
206 199 198 192 182 161 130 112 88 76 86 77 79 87 84 78 86 82 86 130 115 131 145 125 126 136 127 108 95 97 89 65 90 110 114 96 76 82 75 55 44 49 61 61
224 221 202 168 132 144 162 107 91 100 95 83 62 63 82 76 78 114 124 141 154 168 156 138 119 104 89 90 90 92 98 92 76 80 86 85 76 68 49 33 32 46 54 57
201 183 166 189 202 176 173 162 146 148 149 142 127 111 102 96 91 90 131 136 153 146 132 128 116 95 73 70 76 89 88 83 81 80 78 79 76 61 48 43 44 55 51 51
246 271 273 248 205 190 165 165 161 140 136 131 104 111 117 117 136 144 151 164 146 130 115 94 101 94 82 71 74 84 75 77 72 77 64 65 68 66 59 56 54 52 50 60
263 210 208 217 176 168 168 148 145 140 116 95 86 122 151 158 161 162 174 164 149 129 106 92 102 98 90 83 84 77 66 69 66 72 63 41 48 54 51 53 51 53 59 51

GFSNGP_con_3kmhel_063.txt.gz
Helicity
104 80 72 66 89 103 132 135 158 65 107 56 74 60 56 66 83 106 183 260 332 412 483 515 522 560 562 540 625 542 545 416 392 379 383 365 407 368 292 254 212 154 146 96
166 144 120 73 73 90 117 162 169 115 101 76 85 97 101 59 99 113 165 260 359 427 508 508 564 543 527 580 547 509 475 448 443 426 427 411 367 343 297 220 158 175 134 100
110 167 151 120 107 119 112 130 152 159 128 111 152 203 194 162 125 97 121 211 290 389 462 468 452 514 518 523 493 474 477 469 477 447 396 370 353 341 236 195 181 122 98 92
103 165 110 87 128 130 124 149 141 179 181 182 196 208 261 266 169 162 148 194 267 356 371 355 406 415 429 439 468 494 506 471 411 381 387 373 310 205 218 190 124 102 92 92
141 153 132 101 103 127 119 97 95 135 169 159 137 157 188 205 173 134 154 209 258 287 318 351 366 416 501 539 535 516 439 412 414 369 280 212 177 213 155 138 127 113 106 107
179 154 85 28 95 116 170 140 111 111 118 115 151 143 86 155 171 211 253 271 317 352 390 455 455 518 573 526 451 415 393 378 278 231 171 176 170 141 144 134 128 119 117 127
224 162 98 79 130 142 208 91 182 152 115 105 101 99 134 163 199 243 274 317 352 396 438 458 502 507 463 409 382 316 313 237 150 161 165 139 132 132 142 138 144 142 157 164
215 195 108 110 177 182 99 137 134 154 148 154 163 173 198 200 230 273 321 355 398 451 429 383 356 338 325 323 254 201 147 151 152 144 133 130 150 140 142 156 171 180 205 206
144 104 131 95 74 99 99 105 124 166 141 143 149 144 185 228 278 319 349 359 340 359 366 330 306 279 255 199 184 152 127 137 145 129 120 136 147 149 177 190 228 224 246 251
225 165 145 124 127 142 143 157 158 134 137 137 181 210 263 288 310 343 341 351 319 335 336 337 315 290 264 220 195 166 152 149 139 141 133 134 169 205 242 268 286 295 292 283
282 204 209 168 161 214 254 258 279 252 184 221 299 277 318 334 351 349 357 347 336 347 344 294 282 283 265 226 191 182 156 138 128 116 113 116 136 173 202 231 272 292 317 314
183 171 237 175 221 260 307 284 257 326 348 308 326 355 372 393 370 369 381 376 373 332 301 261 241 249 226 186 146 129 117 102 96 99 109 125 141 141 153 160 172 201 215 234
193 240 273 355 359 316 341 311 296 330 344 392 372 421 443 456 437 446 399 372 335 282 238 215 213 207 175 144 121 122 112 107 107 115 127 143 163 188 198 179 170 145 121 122
321 435 375 348 301 372 389 388 408 430 415 440 472 504 525 505 492 449 402 312 260 234 223 197 182 176 139 111 104 96 97 104 113 125 142 159 169 180 203 212 200 164 110 100
317 272 327 415 486 463 421 441 507 478 454 474 451 445 420 426 409 357 275 237 229 230 209 174 156 142 111 101 96 92 87 92 115 124 133 147 169 189 181 164 164 160 143 125
334 319 357 447 445 450 473 464 489 432 423 416 432 424 395 367 319 268 244 197 188 199 172 142 127 116 95 94 95 89 103 119 130 127 146 172 184 187 180 153 131 157 165 114
514 451 457 437 419 419 396 385 402 385 389 395 377 340 320 284 256 232 205 184 169 154 135 129 119 110 106 118 117 109 122 127 137 145 167 177 159 149 131 114 140 161 141 87
304 307 386 421 421 375 393 399 391 373 370 338 321 297 251 208 199 183 174 155 153 146 150 140 128 118 126 153 155 140 133 135 140 155 163 168 165 153 140 127 116 100 70 64
320 350 385 393 329 373 375 373 377 359 325 294 289 249 202 188 165 157 153 162 158 152 146 130 129 131 158 171 158 140 151 160 164 172 168 158 160 143 133 130 118 104 42 -4
406 349 363 336 362 382 398 372 347 346 285 245 215 205 197 158 137 142 142 171 152 124 126 138 147 155 167 173 177 157 175 178 181 172 165 159 163 147 135 119 105 91 82 72
319 270 312 383 418 415 385 327 336 304 201 177 176 164 158 136 126 121 128 136 132 133 143 155 158 153 155 149 150 163 177 186 179 168 183 173 158 139 130 115 103 94 83 81
279 343 374 397 407 396 352 291 236 216 202 194 172 147 146 144 147 159 147 136 133 134 134 133 139 134 132 136 158 164 165 173 160 175 177 165 145 126 118 104 93 84 83 78
369 370 368 360 345 297 234 219 213 188 174 148 130 114 121 117 109 124 129 131 130 109 110 121 124 133 142 153 148 145 151 159 168 162 159 143 125 115 107 93 82 80 73 68
344 339 322 282 251 249 252 196 179 165 162 135 105 97 108 129 139 126 128 119 106 113 118 107 111 135 152 150 147 148 144 163 156 142 146 129 110 103 99 89 82 82 78 75
254 241 236 220 216 205 192 174 182 162 149 139 129 112 122 126 124 105 123 118 117 126 135 138 146 158 157 149 142 148 144 147 137 121 129 111 98 92 88 83 85 87 84 86
254 254 231 226 218 200 192 175 180 165 149 149 145 153 155 157 164 164 167 163 145 135 137 140 152 162 156 142 140 139 138 141 143 122 115 99 90 86 83 81 88 90 93 96
253 247 250 252 232 216 212 205 192 178 166 176 170 145 132 150 174 172 174 171 158 141 140 139 153 155 157 162 145 134 122 126 131 122 109 91 84 79 77 84 87 95 98 96

GFSNGP_con_3kmhel_069.txt.gz
Helicity
71 70 105 74 78 119 95 111 147 94 125 64 48 91 72 59 55 40 40 51 69 78 101 111 110 149 175 216 244 268 324 402 448 535 483 182 207 308 358 156 141 156 173 141
103 133 85 98 66 88 73 116 92 88 23 88 111 135 119 116 98 65 49 54 78 119 156 154 166 207 233 248 250 298 304 335 391 449 166 208 292 356 73 108 237 151 122 179
117 152 143 122 106 133 133 151 168 166 125 134 111 128 150 144 146 138 147 138 125 127 147 153 178 208 215 184 185 205 273 304 251 243 257 283 266 106 208 137 114 107 136 149
150 213 176 121 174 131 102 101 170 138 130 101 116 180 171 151 115 113 105 92 94 100 133 162 181 212 233 234 261 333 317 285 264 270 292 271 180 227 71 138 116 111 128 122
180 170 181 130 152 135 135 74 112 125 94 113 158 152 134 117 106 90 80 88 107 109 124 154 184 219 272 280 296 304 277 285 262 272 310 296 109 78 101 112 111 108 109 113
171 171 157 119 143 169 147 1 122 152 138 164 166 151 120 113 128 122 119 133 149 156 168 201 207 228 283 294 307 280 259 267 276 167 141 102 100 88 108 111 94 103 109 115
209 179 179 161 190 195 124 126 66 89 159 212 155 119 168 163 172 160 159 170 180 205 234 221 211 269 331 306 309 279 264 217 190 156 128 146 153 146 120 115 111 111 126 125
244 222 158 213 310 210 174 111 99 114 173 223 163 189 194 173 178 183 197 203 230 270 284 267 286 351 366 362 291 281 275 245 215 182 177 176 156 133 122 127 126 125 124 125
207 206 199 154 178 223 144 134 109 141 177 215 223 178 183 205 205 203 233 278 298 372 410 382 347 330 376 310 266 250 233 229 195 203 183 162 148 141 129 133 136 135 136 132
147 147 163 144 155 167 148 127 140 183 249 234 230 212 228 235 232 245 277 330 351 402 429 419 381 366 315 276 252 223 226 201 209 181 164 149 133 131 127 128 124 120 109 110
114 140 138 124 101 137 163 201 209 249 213 230 275 260 263 262 258 297 331 354 356 382 383 360 323 315 271 243 187 191 210 194 170 146 139 129 120 110 106 112 105 95 110 117
159 127 197 159 96 115 154 182 219 290 302 256 266 306 299 332 325 358 374 365 376 355 345 313 296 289 260 228 223 187 173 156 141 125 115 106 102 103 109 90 98 146 200 211
149 110 138 170 140 213 267 243 287 322 308 358 303 362 368 434 395 403 398 378 360 344 321 303 301 274 231 208 171 169 153 133 113 108 102 106 103 99 93 98 102 124 153 191
133 116 123 147 164 231 287 337 365 380 356 361 410 431 479 509 486 460 428 385 377 351 325 311 289 257 192 151 140 130 124 129 106 101 101 101 99 89 82 89 84 93 128 153
181 143 138 147 194 267 336 375 437 433 411 432 423 496 531 526 511 469 429 404 381 355 331 289 253 213 148 122 126 128 118 119 110 100 100 96 91 96 105 109 109 121 131 156
133 183 137 166 199 245 313 350 443 381 364 364 440 498 539 583 556 485 433 334 330 327 283 247 199 149 126 123 121 117 120 137 112 112 115 117 121 116 124 122 126 135 146 162
353 225 214 210 245 228 227 241 288 307 385 476 524 640 622 542 397 430 395 364 343 288 221 185 158 128 131 121 115 121 118 116 123 118 123 125 125 120 131 133 136 147 159 160
135 124 173 184 151 312 343 399 463 475 616 707 707 612 491 376 317 353 362 330 262 224 185 153 125 118 123 126 132 130 126 124 124 131 130 136 138 135 143 145 151 160 162 151
137 161 188 241 279 350 393 435 507 556 588 493 510 438 369 357 333 361 266 210 185 172 143 119 123 122 141 161 134 130 130 134 135 142 142 148 148 150 153 157 164 172 173 164
230 237 271 327 359 379 459 528 531 540 502 395 363 370 385 369 249 223 215 215 168 135 117 119 127 141 141 139 132 125 131 137 146 151 160 160 164 171 171 171 171 167 159 148
241 254 279 316 387 462 469 461 478 362 323 381 341 279 222 215 208 184 176 153 127 109 120 128 126 120 116 114 118 120 127 137 147 156 162 178 175 177 176 174 169 157 146 134
235 258 302 350 397 429 411 376 369 321 297 289 254 251 249 215 182 189 166 131 109 105 112 112 109 111 112 94 108 112 123 141 156 160 172 167 167 169 172 168 157 142 128 118
253 257 277 336 393 413 433 382 341 284 239 240 237 204 174 150 144 143 155 132 123 114 119 120 112 100 98 98 107 119 133 143 161 166 163 156 154 157 154 146 135 118 113 106
223 247 281 295 293 314 309 251 221 242 251 224 196 174 164 168 179 163 153 150 149 139 128 113 101 96 106 115 123 135 139 151 148 152 153 144 143 140 133 124 113 110 107 93
236 204 182 179 187 169 170 167 186 191 183 182 180 186 180 171 171 141 139 141 154 143 138 141 131 123 122 124 134 143 154 150 140 137 142 140 133 126 115 107 103 104 98 82
216 201 184 172 144 127 126 125 149 146 140 146 150 149 144 137 131 127 138 158 160 154 151 139 123 114 120 126 145 145 141 139 135 126 124 119 112 110 105 101 101 98 86 74
189 165 152 170 163 149 142 140 140 147 142 140 137 125 124 113 120 134 150 155 157 153 145 139 130 121 139 140 135 134 132 128 129 119 109 106 109 108 102 98 90 83 74 66

GFSNGP_con_3kmhel_072.txt.gz
Helicity
29 17 26 10 -4 27 22 17 17 31 19 28 13 12 26 88 111 75 40 42 49 51 92 115 123 128 144 195 222 218 224 308 374 367 374 384 352 304 220 174 240 85 19 105
51 62 40 19 -2 2 16 8 6 8 -27 20 10 40 52 89 115 118 113 56 41 58 113 161 184 179 207 244 233 222 230 235 306 373 374 349 270 191 165 250 42 87 70 78
58 69 75 49 26 50 47 53 41 -10 -10 22 23 22 39 98 115 117 116 102 92 97 120 179 215 211 221 225 246 277 290 307 316 312 282 201 158 186 158 79 75 71 86 116
82 94 125 21 98 47 42 51 57 25 7 19 21 89 128 119 125 139 153 140 139 143 143 165 197 210 217 257 289 311 321 318 291 278 268 248 213 170 143 47 96 90 107 105
180 114 108 78 119 121 127 40 41 55 15 38 111 90 80 118 149 155 142 146 136 124 125 143 174 196 239 279 302 310 288 270 252 243 245 207 182 84 47 103 111 116 109 97
188 172 127 77 86 120 130 28 38 44 8 55 133 93 108 137 152 162 161 145 128 119 126 145 157 180 213 242 255 253 239 237 213 211 206 81 85 119 112 122 139 119 101 105
134 160 129 117 131 154 110 103 59 49 33 78 106 140 181 187 190 184 173 159 154 155 172 186 194 212 253 258 260 262 278 273 225 171 147 147 139 136 144 140 126 138 147 128
207 185 151 144 207 172 136 94 73 54 65 67 167 178 161 205 212 196 183 180 185 206 228 224 221 239 261 271 263 274 263 237 218 183 170 159 144 153 142 147 146 156 143 134
119 125 150 88 75 85 111 84 108 86 97 150 218 202 185 206 206 201 205 207 212 251 275 269 255 246 287 271 254 273 248 233 208 199 180 171 193 177 166 159 163 158 150 148
117 94 73 69 64 129 117 128 124 88 109 175 220 235 232 232 235 236 225 237 261 300 333 345 322 309 283 263 242 234 252 239 227 224 203 194 166 163 171 178 172 163 165 159
127 98 89 71 65 67 98 93 104 81 111 160 255 257 260 261 253 258 275 274 286 309 349 374 348 335 300 257 240 258 245 233 227 219 194 180 178 180 172 189 175 162 168 150
137 72 114 64 85 60 72 74 122 109 128 190 227 273 276 300 311 309 307 331 336 350 388 394 351 337 297 280 255 253 251 247 211 184 169 163 154 133 142 158 167 171 168 171
119 100 88 97 126 96 65 89 113 162 181 224 249 292 302 343 327 367 385 398 403 421 415 398 377 354 321 311 277 254 238 200 168 152 152 156 145 149 149 122 110 122 156 150
124 140 127 98 104 115 105 109 163 232 240 282 302 312 350 383 423 404 419 457 453 446 445 406 375 357 325 272 245 213 186 166 145 146 147 143 147 144 138 149 135 127 144 151
119 104 137 119 116 156 149 149 201 238 298 344 359 400 427 420 465 529 523 503 512 514 458 350 367 345 270 220 192 169 141 139 135 137 145 143 133 132 134 135 136 137 141 140
128 181 143 105 134 121 124 136 211 261 326 353 382 408 484 557 549 563 632 694 589 372 272 258 307 276 207 165 144 128 130 145 133 136 134 131 133 140 152 150 146 151 148 161
112 88 102 127 164 102 63 145 163 218 244 240 310 393 440 573 688 823 758 499 376 362 357 296 231 157 139 134 126 126 125 128 132 125 138 145 148 148 152 151 152 153 153 171
116 108 109 120 111 156 218 266 290 287 340 418 625 739 701 724 612 503 467 406 435 353 217 168 155 152 143 135 132 130 129 132 137 149 147 152 161 156 160 160 157 159 160 162
177 159 135 147 183 210 228 254 297 347 460 453 481 548 485 481 435 416 425 334 212 198 197 173 155 137 135 139 116 125 138 146 151 159 156 150 147 161 165 176 181 176 171 165
185 209 225 256 253 226 268 320 374 358 375 476 543 600 553 451 322 212 184 241 233 203 156 140 126 125 122 130 127 142 153 164 173 163 157 150 163 171 184 182 188 186 181 179
214 226 257 262 285 299 304 293 378 424 441 482 491 432 291 217 219 210 205 214 180 149 151 136 129 123 131 128 127 151 158 157 153 155 159 167 170 182 199 202 198 190 186 176
205 228 243 270 318 352 343 360 416 443 403 339 276 232 226 225 212 231 226 166 149 130 141 139 139 150 142 107 143 145 149 154 154 156 162 170 187 199 203 199 193 186 170 154
188 204 245 312 319 318 366 358 320 279 262 229 199 170 165 168 156 150 166 167 155 151 148 151 141 124 121 113 134 139 147 146 150 162 174 184 185 186 184 178 176 155 142 127
195 217 225 218 257 290 283 223 210 198 178 172 177 159 140 139 162 167 173 178 164 133 153 152 140 129 107 129 130 136 134 149 167 176 174 169 162 166 157 152 137 124 108 98
201 191 188 184 189 170 154 132 139 135 132 139 143 142 143 144 146 124 127 142 146 131 152 164 148 131 124 133 137 146 163 169 187 177 165 160 152 141 129 117 108 100 96 88
189 178 167 159 125 102 97 93 112 114 114 130 134 127 122 121 119 118 137 155 159 154 162 156 161 147 141 143 164 160 159 161 157 157 148 131 120 113 104 99 95 88 84 78
160 135 125 136 127 116 116 124 131 142 140 131 128 129 130 125 131 135 148 161 166 163 159 161 154 170 167 163 146 148 144 141 146 137 119 112 104 97 96 91 84 77 71 65

GFSNGP_con_3kmhel_078.txt.gz
Helicity
65 64 21 42 35 32 58 56 4 58 -18 -20 -10 -3 80 64 63 41 39 66 56 37 102 166 136 152 159 329 443 483 554 547 528 554 535 471 435 417 425 424 378 427 314 248
76 51 47 67 13 61 65 15 36 31 -16 -4 -26 2 73 20 56 52 47 81 128 149 93 188 270 278 395 502 496 528 579 582 488 437 454 395 402 514 458 402 350 308 194 159
83 61 76 60 8 40 49 37 33 34 38 43 32 9 33 55 96 83 52 180 232 154 144 307 497 452 469 539 540 549 479 432 401 394 399 446 534 453 399 315 249 231 103 120
80 116 43 48 72 59 61 70 64 52 47 41 30 25 48 92 118 97 164 219 225 186 303 373 456 502 550 501 501 455 338 344 328 340 379 411 427 375 292 240 170 119 137 227
167 94 121 80 81 115 122 55 37 43 31 28 37 103 89 77 127 125 224 202 188 246 368 360 348 327 343 330 309 275 263 257 247 287 351 330 298 265 233 197 193 225 245 223
208 188 89 142 105 69 51 74 4 3 29 48 39 85 111 131 138 215 227 192 189 245 300 225 204 208 231 238 240 218 205 195 211 237 283 281 264 214 186 210 226 239 307 377
237 191 147 81 59 76 56 89 -7 40 49 91 109 141 172 152 139 138 157 157 181 192 167 149 143 148 155 159 168 173 223 259 265 243 226 226 229 254 262 279 344 355 327 295
144 161 79 98 108 69 76 20 27 23 60 105 136 159 166 124 137 161 170 195 180 184 201 206 188 178 164 177 250 299 254 242 276 293 260 274 311 290 274 268 303 285 252 238
154 135 140 94 91 49 50 56 50 67 89 100 154 155 137 137 168 183 202 174 199 231 249 217 196 150 230 326 306 312 325 331 368 332 297 273 275 284 295 303 288 254 216 200
67 81 121 32 248 61 80 96 107 88 85 122 133 146 144 166 171 199 207 236 273 331 332 332 283 339 412 379 346 354 352 392 353 342 343 328 338 335 339 338 295 247 192 193
36 28 1 9 -25 123 86 57 60 81 52 70 151 135 126 171 203 197 250 307 359 353 402 444 466 451 368 395 370 443 459 426 439 408 403 423 413 391 296 277 242 242 260 242
100 61 48 39 48 103 83 67 69 111 86 103 118 136 135 165 219 247 327 362 376 397 407 483 549 582 561 495 525 515 550 648 493 422 402 312 283 299 258 158 150 158 176 194
44 62 122 90 74 128 115 153 171 97 76 90 122 164 171 226 270 370 397 476 526 547 594 666 778 881 904 924 834 747 582 559 531 499 381 369 351 298 220 146 101 79 85 114
69 67 108 60 120 100 128 145 138 161 164 147 158 259 278 411 492 513 466 470 582 750 855 903 930 851 708 643 631 642 682 685 489 364 366 341 248 214 219 227 176 122 74 74
66 113 179 138 107 124 121 115 140 172 208 273 330 382 502 526 553 653 727 804 930 976 966 834 676 704 649 591 597 536 478 372 275 203 180 209 225 205 165 170 181 178 186 156
79 152 190 140 139 126 116 125 153 151 196 267 388 476 697 959 1095 1188 1103 992 842 540 437 478 582 647 607 410 273 226 228 250 253 235 205 178 174 182 172 183 193 191 205 245
210 190 145 118 126 123 158 145 135 186 341 488 676 785 808 879 875 810 726 598 550 516 477 448 399 314 277 266 279 257 219 232 209 181 186 186 173 176 199 195 203 221 225 233
237 251 184 143 154 259 346 426 454 427 429 447 533 587 587 571 515 477 432 433 453 406 326 287 261 254 255 238 221 199 183 172 167 173 176 194 198 176 175 203 211 241 257 263
257 270 285 331 291 256 262 318 383 431 377 387 472 461 436 405 353 329 310 294 260 252 235 206 202 194 181 178 152 150 151 159 167 172 172 183 185 199 224 224 234 241 231 225
291 285 288 315 314 319 352 365 402 427 336 340 351 374 366 321 296 279 261 251 196 150 133 135 136 142 144 146 141 134 146 158 169 174 182 172 163 209 202 181 212 227 239 228
296 323 354 388 450 414 374 356 339 287 252 291 316 295 260 196 149 125 145 150 120 108 112 130 149 130 139 137 134 149 160 162 174 182 190 187 186 196 226 238 242 233 220 217
340 354 374 401 400 382 286 233 274 276 257 242 211 180 175 171 159 166 129 103 74 56 103 139 144 168 149 140 160 159 164 176 171 167 182 205 218 219 217 213 208 199 187 166
343 336 293 266 256 289 296 279 239 210 203 181 159 141 139 124 89 83 104 98 101 139 187 151 132 151 150 118 145 155 171 176 184 202 196 213 215 192 174 169 169 153 141 137
225 238 214 190 183 215 225 184 177 172 163 171 199 174 108 94 125 127 132 151 160 167 158 143 142 148 143 136 167 177 174 182 181 202 223 186 171 178 168 153 140 135 128 128
180 158 154 171 194 161 139 123 133 133 137 144 141 148 165 207 164 130 109 131 196 195 135 95 108 126 150 179 195 201 174 172 191 171 177 194 169 153 145 139 128 121 108 98
218 215 208 200 167 135 120 111 110 82 88 111 118 113 118 119 122 123 134 152 147 158 157 151 119 114 113 139 135 154 178 183 184 185 179 159 133 125 121 111 100 95 91 84
179 165 159 168 159 159 145 134 140 158 119 90 115 136 158 141 144 144 161 133 120 128 119 118 133 148 162 150 157 169 162 165 171 159 141 130 110 98 90 83 76 66 60 55

GFSNGP_con_3kmhel_084.txt.gz
Helicity
101 56 123 205 197 180 93 142 158 88 101 86 48 23 -9 -26 20 84 97 67 60 139 109 123 145 115 157 251 288 336 336 362 297 343 418 484 572 376 366 346 433 357 392 395
63 83 124 68 108 149 161 87 112 80 89 43 39 25 15 67 73 96 88 129 88 75 181 168 172 204 275 314 305 385 375 427 382 432 481 488 449 426 424 425 455 480 416 448
76 84 96 93 92 147 100 120 26 63 70 75 61 33 45 57 82 87 90 112 113 145 178 264 318 366 395 419 457 464 426 400 406 452 439 393 349 338 384 396 430 437 458 419
84 134 69 31 76 106 72 47 91 66 23 55 53 125 87 65 102 114 158 199 176 195 231 315 378 445 450 436 454 486 441 403 380 345 333 320 313 328 347 403 459 486 490 493
172 143 142 92 123 117 123 88 79 94 54 60 71 127 168 142 117 128 113 133 167 176 212 304 378 414 457 451 418 373 336 302 256 229 239 260 292 321 333 362 418 493 497 356
204 121 100 126 134 158 133 117 96 100 66 78 88 140 103 114 163 157 143 136 153 200 267 297 278 291 319 303 282 246 207 202 209 210 240 273 296 307 314 373 444 462 522 445
145 73 164 151 124 70 176 162 118 109 84 30 56 75 108 165 163 145 145 165 197 239 225 222 232 237 245 225 202 187 187 197 202 209 236 252 274 300 392 445 444 440 485 467
106 64 38 44 146 167 126 137 36 136 133 63 60 67 77 112 120 131 143 156 190 218 204 191 190 198 198 198 188 189 194 202 202 221 248 296 367 408 425 455 487 435 423 505
51 -14 3 47 50 229 215 175 120 116 89 71 155 97 82 79 115 143 133 155 177 196 189 159 161 176 218 209 217 234 270 292 323 384 419 438 421 410 420 429 455 459 487 496
40 12 6 27 31 24 34 53 138 95 116 79 97 102 111 112 129 163 182 192 206 237 257 303 251 221 223 266 331 391 445 469 495 525 572 578 531 498 500 489 520 505 421 407
29 0 23 54 93 41 44 18 12 97 113 18 61 72 98 140 155 214 264 301 374 456 479 464 490 481 463 472 494 512 514 514 551 576 596 664 712 670 632 627 470 477 504 446
23 16 9 13 27 -23 -8 31 99 96 105 80 47 136 133 176 246 288 379 471 563 571 649 660 746 727 647 560 532 511 527 535 561 617 647 672 739 708 677 574 482 328 254 251
56 81 26 41 64 67 127 124 93 24 98 131 139 200 331 427 468 544 522 560 635 681 717 742 780 752 634 612 619 599 624 602 592 560 455 362 315 295 289 257 270 261 240 221
48 97 94 79 73 117 165 180 205 239 267 275 317 424 528 598 623 653 653 683 767 815 789 749 757 731 661 649 652 544 426 371 302 286 287 293 285 258 227 214 204 204 160 153
139 115 130 174 169 199 190 201 305 323 363 480 509 567 607 681 729 741 749 757 748 734 698 672 595 474 382 332 315 313 291 271 251 233 215 202 192 197 201 201 205 208 208 239
65 114 137 208 221 238 247 266 332 335 411 457 575 650 707 770 791 784 729 630 662 621 483 418 382 295 265 249 250 252 246 240 202 182 183 191 190 201 212 208 219 232 241 247
125 130 183 226 245 263 247 236 288 338 401 484 507 538 638 722 747 730 709 666 549 443 378 333 290 270 266 243 217 187 171 181 186 172 186 189 190 199 206 223 241 245 233 225
281 361 301 224 246 263 272 312 319 347 382 390 448 526 557 576 564 591 486 358 351 384 347 280 247 237 213 196 182 171 172 180 184 184 182 207 210 215 234 242 242 252 263 281
394 459 448 389 295 286 285 294 311 322 319 342 424 449 431 453 423 364 267 282 274 278 251 218 222 219 202 186 174 163 169 178 189 194 192 207 218 230 243 260 274 290 299 290
344 362 355 322 308 285 312 318 333 355 341 392 430 445 469 456 369 328 322 327 240 178 162 177 184 196 184 180 166 154 171 183 191 196 213 223 231 240 248 263 256 246 234 230
204 265 301 334 353 368 367 356 389 429 447 481 520 472 425 341 257 192 201 203 167 156 173 195 173 165 165 153 148 150 163 169 177 179 186 208 234 251 269 278 284 266 246 223
225 271 287 330 352 433 458 467 483 515 525 485 400 311 241 218 199 201 174 144 127 156 141 140 142 175 183 201 177 172 167 168 167 182 211 215 219 230 235 232 240 240 228 201
279 311 405 496 531 573 600 563 490 392 296 212 185 173 174 144 117 126 152 139 142 147 133 122 146 170 164 134 136 151 156 165 170 163 164 179 182 184 183 185 179 173 163 143
364 406 449 439 445 482 443 331 263 232 202 183 165 135 122 137 180 165 160 151 145 145 119 103 124 143 126 101 114 126 132 129 135 149 161 173 165 158 166 144 123 97 71 62
431 393 345 323 299 241 205 179 196 188 190 195 182 157 150 140 128 102 120 122 144 114 111 122 121 107 82 87 88 104 112 125 124 127 126 113 103 83 62 51 34 30 37 44
283 263 246 214 163 131 120 130 163 137 145 167 158 136 138 132 135 130 116 109 112 117 94 89 80 71 74 88 105 99 83 86 81 69 75 76 54 44 30 26 26 33 37 40
246 214 191 188 168 137 120 127 142 137 126 129 157 130 128 108 104 107 107 97 86 77 69 59 56 66 90 100 86 68 58 52 49 55 52 48 45 35 29 28 33 36 42 51

GFSNGP_con_3kmhel_087.txt.gz
Helicity
102 95 71 164 161 189 173 157 145 110 88 73 84 62 51 -1 24 -31 47 80 37 94 102 119 164 193 209 197 247 309 317 314 322 271 313 337 371 396 427 421 353 312 288 237
187 139 100 84 137 109 165 177 190 124 84 111 75 86 76 27 31 29 58 108 82 72 104 82 135 219 233 236 252 297 283 282 354 385 388 372 367 367 381 370 366 304 248 298
112 176 99 138 72 121 121 100 202 151 80 52 69 69 26 15 44 49 93 83 59 81 97 89 139 187 205 260 330 343 361 357 358 379 391 392 358 311 315 307 276 275 308 397
99 172 132 59 36 61 79 78 132 184 131 84 40 64 74 18 56 71 82 86 117 126 120 144 181 258 311 322 304 319 344 333 322 280 244 253 264 259 248 289 293 307 364 447
40 108 114 50 24 54 130 118 75 95 124 76 36 106 104 109 91 75 91 110 161 154 160 149 193 262 317 332 316 286 275 272 245 236 241 235 230 249 282 334 350 394 458 501
48 108 80 35 44 76 148 66 78 85 76 45 94 154 90 88 125 167 206 196 200 198 172 173 198 231 230 229 224 224 221 222 212 211 208 206 206 236 266 320 367 404 494 516
56 101 114 127 90 94 130 76 164 209 191 176 95 54 70 149 183 231 214 202 168 154 152 162 175 178 216 222 227 201 195 184 181 178 179 195 230 268 313 367 439 486 515 504
161 99 19 32 88 77 33 77 153 111 66 97 81 41 38 165 239 243 221 175 149 168 164 162 151 176 203 216 202 216 217 224 224 237 239 255 304 326 364 418 460 457 464 482
65 9 17 49 67 52 125 138 113 100 69 46 87 101 164 184 211 192 167 162 157 167 197 195 163 158 198 205 238 290 348 340 332 352 362 365 369 386 422 436 441 477 527 552
57 42 43 49 31 18 21 134 226 94 98 56 107 149 250 245 220 200 185 200 217 266 274 261 241 264 247 259 263 289 304 313 308 333 371 399 394 408 429 455 473 524 519 471
71 47 24 -42 5 103 44 50 175 223 91 111 43 111 176 152 170 211 263 292 291 300 310 306 294 293 223 183 203 235 270 288 320 358 389 422 488 475 533 598 540 509 501 458
2 18 -18 -1 21 37 48 35 55 49 65 66 77 151 236 271 250 263 300 301 363 370 406 359 370 360 308 252 261 293 338 342 341 356 332 323 313 319 330 274 249 232 237 218
-18 -35 -67 -19 41 -20 31 -4 48 94 84 179 192 262 396 389 371 416 405 430 438 428 388 400 411 425 363 352 391 425 426 359 298 264 233 228 236 216 207 206 218 222 224 197
123 64 -18 25 63 144 159 109 130 248 320 347 365 527 632 528 500 461 459 422 461 493 481 463 513 535 430 412 416 377 332 313 250 237 237 238 238 241 241 241 230 204 180 164
121 130 67 55 126 174 198 155 293 233 210 381 488 515 511 574 518 505 493 513 542 584 574 553 528 476 389 363 360 323 278 254 253 262 265 255 233 227 222 216 217 210 197 238
84 76 153 211 204 188 173 181 204 212 298 345 453 514 547 621 639 601 556 499 564 552 514 524 511 390 343 313 295 276 280 290 253 227 221 217 206 194 193 190 193 202 222 246
24 104 167 192 199 203 247 294 259 351 341 389 432 452 524 587 605 572 561 545 547 572 511 421 346 275 268 257 234 198 184 199 205 188 182 170 176 192 192 200 206 209 232 268
108 120 222 235 262 280 288 298 282 283 295 376 400 472 501 499 464 467 473 504 544 519 424 318 261 246 223 198 185 169 164 167 169 168 165 177 175 174 182 195 215 226 224 229
180 324 444 420 350 341 315 281 308 370 369 381 449 446 404 385 375 408 430 482 448 407 313 247 207 194 189 178 152 137 138 143 150 154 152 169 181 186 193 198 203 218 221 231
233 294 372 416 395 360 411 397 393 438 433 461 474 468 493 464 479 482 485 461 330 212 161 160 167 170 161 156 131 103 112 123 124 125 129 140 160 179 190 213 210 215 205 198
236 318 369 417 450 365 422 338 358 401 456 415 469 458 450 448 403 334 316 266 182 150 160 175 142 121 102 91 94 94 86 81 96 121 131 143 153 163 174 178 185 184 186 187
215 306 311 330 337 337 360 365 382 437 482 485 474 447 413 361 283 258 192 139 118 149 130 114 92 104 93 103 64 70 95 108 100 96 115 120 125 130 132 134 140 131 126 113
303 286 288 316 356 414 450 439 477 474 465 397 321 250 211 151 114 127 147 121 104 100 88 82 86 91 82 66 73 77 73 76 79 79 81 82 87 97 97 94 84 77 70 62
357 343 369 375 443 499 546 461 425 370 303 247 208 149 126 152 191 146 112 119 134 121 76 53 76 108 95 61 58 59 62 71 72 69 66 72 63 67 69 56 54 52 54 52
441 426 431 418 411 361 307 259 251 221 215 203 181 160 140 107 95 70 99 93 103 84 84 105 101 84 47 38 43 51 50 53 49 55 55 55 49 48 42 45 47 49 54 60
348 363 337 270 209 165 146 146 162 125 134 161 166 145 135 116 112 106 99 95 99 101 71 46 46 51 44 29 42 49 53 57 65 66 65 61 52 50 50 53 55 61 67 72
294 254 228 215 178 144 131 122 118 109 105 104 126 106 113 116 117 112 110 96 71 53 48 60 57 45 36 47 54 53 74 84 87 75 63 56 55 56 55 61 68 78 82 82

GFSNGP_con_3kmhel_090.txt.gz
Helicity
102 139 144 174 241 136 160 193 164 101 119 113 89 68 50 44 70 47 51 77 66 73 63 138 146 139 152 163 195 223 216 211 213 224 237 225 228 234 254 220 232 235 239 294
64 68 157 174 124 170 160 250 179 151 104 97 87 97 94 40 59 59 53 28 47 76 93 142 191 161 167 168 197 239 234 207 155 158 184 229 263 280 285 252 261 264 298 280
-58 94 78 137 91 107 202 152 150 139 79 97 104 60 66 58 24 30 27 54 59 65 87 86 119 120 154 195 233 259 247 238 255 222 208 228 266 270 245 260 284 270 257 248
35 48 75 91 61 108 141 166 137 108 102 105 88 138 116 65 73 82 71 44 39 114 111 103 115 143 191 202 250 285 305 293 264 253 238 224 212 195 224 233 221 214 238 277
-160 -8 35 199 159 89 110 64 91 114 145 103 67 93 99 59 73 58 67 91 162 175 142 153 155 163 178 189 236 251 238 199 164 165 180 203 197 199 198 220 254 300 316 318
-134 -46 -45 -18 101 169 77 42 52 64 102 161 196 197 128 9 88 104 154 194 233 197 162 191 161 132 168 199 196 200 191 165 170 182 208 213 216 236 241 244 262 287 364 385
-133 -32 -75 -43 17 140 87 44 24 89 43 175 224 144 73 38 137 178 228 246 246 210 211 203 159 172 217 202 195 181 213 237 249 247 257 244 245 236 233 266 318 380 467 495
59 42 -20 -35 13 42 84 103 27 102 59 141 145 43 50 63 122 166 209 262 257 272 256 211 189 198 232 242 204 232 249 243 236 219 185 186 212 220 253 284 342 377 416 443
-21 48 61 -15 24 28 4 32 147 203 89 30 111 74 64 -7 146 237 285 294 303 277 270 258 227 182 196 147 161 187 208 192 186 212 224 217 206 205 230 246 272 305 360 401
61 73 14 46 16 6 82 29 43 188 128 30 71 60 82 282 348 366 346 315 246 254 290 294 228 188 142 106 148 198 216 234 235 249 274 296 303 304 313 291 302 331 349 350
20 47 77 52 -3 -22 2 -56 21 65 48 156 95 155 131 218 277 249 272 299 266 247 317 297 268 269 216 208 200 235 242 232 249 277 296 333 368 338 320 353 291 270 253 215
26 44 69 2 -17 -28 24 11 41 61 55 139 100 187 204 229 258 311 217 267 302 269 319 327 337 299 261 225 225 240 264 267 257 262 260 244 223 230 281 249 241 227 209 164
58 14 9 42 -1 -45 32 48 -7 73 192 188 254 198 209 236 249 282 342 370 403 349 315 319 330 328 307 288 306 306 277 241 229 227 213 200 190 166 147 176 217 226 179 131
30 -49 -62 -7 28 -33 39 96 79 -22 17 119 272 348 432 472 454 349 345 350 332 362 339 356 425 413 317 300 310 288 271 271 217 194 172 166 172 177 173 173 166 161 252 330
65 20 16 23 96 94 117 165 164 167 164 124 195 242 331 347 326 410 412 444 453 436 411 402 403 381 326 315 320 280 239 205 186 171 169 160 148 152 150 164 176 187 200 239
60 37 54 107 98 127 138 142 174 156 285 232 385 439 449 550 566 575 512 462 452 405 359 372 395 357 346 287 263 252 237 224 175 146 148 154 149 151 160 163 174 189 213 236
47 44 102 119 135 177 183 181 248 251 298 322 345 411 519 560 601 574 535 482 449 437 401 388 362 309 266 247 229 189 151 149 156 138 137 138 144 150 148 160 158 154 150 165
52 65 77 129 195 219 224 225 246 269 299 322 381 483 581 574 519 454 425 396 414 441 397 332 262 249 252 216 153 114 105 104 110 110 107 115 114 118 124 128 143 149 146 157
76 90 160 210 204 242 244 281 333 380 386 402 465 547 528 523 415 350 365 414 407 390 315 252 251 219 170 135 107 92 94 99 105 101 93 100 110 111 111 107 122 140 139 146
98 171 208 278 265 315 399 404 443 473 456 516 555 559 545 452 403 385 381 453 332 227 192 172 153 142 124 122 107 88 97 85 71 67 68 70 59 74 90 114 102 87 82 71
46 155 242 327 406 455 468 394 494 612 482 379 482 480 389 388 352 323 371 335 246 181 155 145 112 84 77 88 92 69 52 55 62 40 29 44 74 64 47 27 31 50 51 49
176 224 272 362 437 558 560 555 586 451 367 403 410 378 416 416 388 376 277 167 101 129 107 95 85 98 80 78 52 54 41 24 22 39 57 39 19 18 28 42 42 33 33 30
216 249 341 413 473 461 397 381 344 337 390 403 362 324 323 251 176 154 142 99 96 101 96 82 77 88 82 53 30 20 37 56 45 25 3 5 24 43 39 40 34 33 33 39
280 297 314 334 340 414 433 357 382 408 399 358 313 223 160 154 180 131 99 106 120 107 72 52 58 55 36 21 39 48 38 26 11 2 25 52 54 53 45 35 34 39 47 53
325 339 327 337 378 350 350 341 379 337 285 245 200 157 127 90 87 63 90 83 94 76 57 49 46 50 39 36 32 23 14 11 22 49 62 56 43 40 34 38 45 48 51 56
322 349 330 312 264 241 235 205 211 161 153 174 168 140 135 117 102 88 78 71 60 54 41 37 38 38 31 22 14 13 26 47 65 58 51 50 44 41 44 47 50 54 64 75
286 256 268 279 229 179 158 142 153 139 121 119 138 102 97 87 82 74 68 53 42 45 55 53 35 23 15 13 38 50 57 55 51 55 58 52 47 45 48 53 59 66 73 79

GFSNGP_con_3kmhel_096.txt.gz
Helicity
93 111 119 85 81 153 113 72 74 56 82 83 31 63 64 48 41 48 14 23 37 43 31 41 46 38 30 59 89 78 69 55 49 64 68 68 71 69 41 45 78 93 71 63
41 21 40 52 61 40 44 68 42 -0 1 30 37 30 25 32 36 91 24 36 36 31 18 38 54 34 38 69 44 30 21 18 16 28 36 43 39 61 66 79 84 88 93 91
20 29 32 48 37 50 45 41 50 31 19 7 15 19 -12 35 36 43 27 32 33 1 28 27 38 64 49 81 103 67 44 34 41 50 56 66 65 65 75 95 100 100 125 174
76 64 22 32 62 21 47 72 82 42 43 45 45 -1 5 26 47 57 70 53 79 57 7 50 65 80 99 103 114 111 84 84 90 99 103 107 111 125 194 272 316 327 345 339
44 10 16 99 25 16 46 110 53 20 48 39 62 43 62 34 53 61 89 39 19 96 63 120 99 121 150 168 177 200 226 195 197 194 235 300 336 326 323 364 392 379 366 354
36 56 64 30 145 83 58 146 100 109 239 221 218 116 76 48 69 49 95 50 24 133 154 171 221 223 224 330 346 355 298 319 319 302 346 384 366 367 388 396 393 376 411 397
23 27 43 73 61 59 64 130 79 102 184 294 204 141 141 126 155 131 143 13 62 164 234 274 315 407 445 488 462 400 399 406 403 421 410 359 358 346 335 339 350 366 388 391
29 26 45 53 15 114 114 176 116 61 177 302 201 85 131 149 180 193 266 198 198 288 349 313 385 395 474 530 387 396 386 434 433 384 328 311 328 318 299 284 309 303 291 305
19 33 -3 15 11 69 143 142 171 22 353 210 137 98 138 133 157 234 318 348 422 526 565 581 479 429 427 335 353 361 394 368 416 404 372 375 357 317 301 292 284 294 296 300
5 -13 -7 -10 51 141 51 67 41 -30 134 140 52 121 124 118 84 117 206 278 324 376 402 514 500 442 399 312 309 337 352 362 337 318 371 371 353 350 351 334 303 296 285 271
10 13 -0 -29 -18 34 37 81 17 25 -44 -5 45 96 137 144 168 194 229 225 283 332 327 300 287 321 316 302 319 381 352 287 260 288 309 356 413 358 361 423 335 270 269 256
15 -0 -4 11 12 25 81 93 65 13 -18 53 36 67 126 175 279 394 432 258 279 276 226 225 254 283 288 278 275 269 265 193 194 171 195 223 267 364 447 373 370 377 334 201
50 39 -16 -2 22 67 40 46 45 50 47 36 115 130 126 205 317 365 428 472 369 349 370 457 483 439 348 292 248 272 207 133 152 187 183 159 160 170 182 217 291 292 268 271
33 33 21 14 17 71 41 26 56 100 81 61 60 181 198 218 191 315 406 466 459 489 491 438 435 487 364 294 262 214 197 219 193 172 150 153 165 152 125 118 122 129 216 219
79 21 7 2 -6 52 50 37 66 132 135 117 101 270 274 313 442 430 320 322 393 482 490 490 521 449 274 227 234 219 198 176 142 156 176 159 138 136 134 139 145 141 132 150
54 17 28 13 30 62 80 67 68 128 178 185 76 159 183 264 359 432 429 410 495 468 399 390 333 249 215 227 221 200 198 189 170 160 145 139 137 136 138 142 142 145 158 164
23 29 26 23 31 69 72 80 68 106 167 208 201 172 344 443 529 624 670 518 486 456 403 272 232 206 211 211 210 173 164 170 161 135 140 142 139 139 130 124 128 136 144 145
32 39 44 41 38 64 87 83 104 123 160 224 312 297 380 500 533 552 524 508 386 402 357 228 209 216 231 207 186 147 124 122 128 132 121 122 118 116 121 132 134 124 103 94
61 60 69 95 102 111 81 105 121 150 184 288 421 393 425 505 511 481 439 478 315 293 256 219 220 215 219 181 139 117 117 118 117 115 107 108 117 124 125 116 100 91 91 98
54 78 128 157 139 145 192 145 104 180 236 337 448 499 562 547 544 516 482 424 294 225 197 191 193 209 176 149 127 103 103 103 105 104 102 109 109 101 90 98 98 102 99 108
52 81 111 136 178 202 241 198 212 256 303 448 593 628 607 524 573 586 398 333 225 192 195 184 161 134 112 98 99 98 100 101 100 95 92 87 84 92 100 99 90 103 107 98
81 113 154 184 214 252 282 274 308 394 426 511 581 631 595 553 418 339 272 208 162 153 147 142 125 120 103 111 99 95 90 92 93 92 95 95 96 88 90 96 105 97 82 65
119 158 206 261 301 344 412 458 474 495 566 514 539 442 440 323 234 198 210 162 126 133 130 122 117 120 106 90 91 97 107 111 106 102 93 81 76 78 91 90 75 71 64 66
96 122 169 208 227 345 401 391 460 527 535 492 438 344 255 212 237 187 169 133 123 117 109 93 103 108 99 89 96 103 104 97 86 80 79 75 71 77 72 71 69 63 67 68
100 138 194 234 295 297 363 320 426 427 416 412 333 276 217 182 188 101 104 103 104 104 101 97 105 107 101 99 94 84 83 85 81 71 63 74 73 69 69 72 66 66 63 56
99 132 177 182 169 177 213 220 276 226 200 230 197 149 138 115 93 104 99 80 72 74 69 67 82 90 83 81 84 86 80 69 61 65 72 76 74 72 70 62 57 57 55 50
184 190 157 155 146 126 152 165 184 170 144 154 154 103 87 91 104 89 78 63 61 63 68 72 75 77 69 68 71 67 61 65 68 73 77 75 73 68 60 56 53 49 48 49